GFSMA_prec_precacc24_246.txt.gz
Total_Precipitation_Accumulation
0.00 0.00 0.00 0.00 0.00 0.00 0.00 0.00 0.00 0.00 0.00 0.00 0.00 0.00 0.00 0.00 0.00 0.00 0.00 0.00 0.00 0.00 0.00 0.00 0.01 0.03 0.03 0.03 0.02 0.02 0.02 0.01 0.01 0.01 0.01 0.01 0.00 0.00 0.00 0.00 0.01 0.01 0.01
0.00 0.00 0.00 0.00 0.00 0.00 0.00 0.00 0.00 0.00 0.00 0.00 0.00 0.00 0.00 0.00 0.00 0.00 0.00 0.00 0.00 0.00 0.00 0.00 0.00 0.00 0.00 0.01 0.02 0.03 0.03 0.02 0.02 0.02 0.01 0.01 0.00 0.00 0.00 0.00 0.01 0.01 0.01
0.00 0.00 0.00 0.00 0.00 0.00 0.00 0.00 0.00 0.00 0.00 0.00 0.00 0.00 0.00 0.00 0.01 0.01 0.02 0.03 0.00 0.00 0.00 0.00 0.00 0.00 0.00 0.00 0.01 0.02 0.03 0.03 0.04 0.04 0.04 0.04 0.03 0.03 0.02 0.01 0.00 0.01 0.01
0.00 0.00 0.00 0.00 0.00 0.00 0.00 0.00 0.00 0.00 0.00 0.00 0.00 0.01 0.02 0.04 0.05 0.04 0.04 0.04 0.03 0.01 0.00 0.00 0.00 0.00 0.00 0.00 0.00 0.00 0.01 0.02 0.03 0.04 0.05 0.06 0.07 0.07 0.07 0.07 0.06 0.05 0.04
0.00 0.00 0.00 0.00 0.00 0.00 0.00 0.00 0.00 0.00 0.01 0.03 0.05 0.06 0.07 0.07 0.06 0.03 0.03 0.02 0.02 0.02 0.01 0.00 0.00 0.00 0.00 0.00 0.00 0.00 0.00 0.00 0.01 0.02 0.04 0.07 0.09 0.09 0.08 0.09 0.08 0.08 0.08
0.00 0.00 0.00 0.00 0.00 0.00 0.00 0.00 0.00 0.00 0.01 0.06 0.04 0.04 0.06 0.05 0.05 0.02 0.00 0.00 0.00 0.01 0.00 0.00 0.00 0.00 0.00 0.00 0.00 0.00 0.00 0.00 0.00 0.00 0.00 0.01 0.04 0.08 0.10 0.08 0.07 0.07 0.08
0.00 0.00 0.00 0.00 0.00 0.00 0.01 0.01 0.00 0.01 0.01 0.03 0.05 0.04 0.04 0.03 0.03 0.01 0.00 0.00 0.01 0.01 0.00 0.00 0.00 0.00 0.00 0.00 0.00 0.00 0.00 0.00 0.00 0.00 0.00 0.00 0.00 0.01 0.04 0.07 0.09 0.10 0.12
0.00 0.00 0.00 0.00 0.00 0.00 0.01 0.01 0.01 0.01 0.02 0.01 0.02 0.02 0.02 0.01 0.00 0.00 0.00 0.00 0.00 0.00 0.00 0.00 0.00 0.00 0.00 0.00 0.00 0.00 0.00 0.00 0.00 0.00 0.00 0.00 0.00 0.00 0.00 0.04 0.14 0.23 0.27
0.00 0.01 0.01 0.01 0.00 0.00 0.01 0.01 0.01 0.02 0.01 0.00 0.00 0.01 0.00 0.00 0.01 0.00 0.00 0.00 0.00 0.00 0.00 0.00 0.00 0.00 0.00 0.00 0.00 0.00 0.00 0.00 0.00 0.00 0.00 0.00 0.00 0.00 0.00 0.01 0.01 0.10 0.25
0.00 0.00 0.00 0.00 0.00 0.00 0.01 0.01 0.01 0.01 0.01 0.01 0.00 0.00 0.00 0.00 0.00 0.00 0.00 0.00 0.00 0.00 0.00 0.00 0.00 0.00 0.00 0.00 0.00 0.00 0.00 0.00 0.00 0.00 0.00 0.00 0.01 0.01 0.01 0.01 0.03 0.04 0.17
0.00 0.00 0.00 0.00 0.00 0.00 0.00 0.00 0.01 0.01 0.01 0.01 0.01 0.00 0.00 0.00 0.00 0.00 0.00 0.00 0.01 0.00 0.00 0.00 0.00 0.00 0.00 0.00 0.00 0.00 0.00 0.00 0.00 0.00 0.00 0.00 0.00 0.01 0.02 0.02 0.04 0.04 0.05
0.00 0.00 0.00 0.00 0.00 0.00 0.00 0.01 0.01 0.01 0.01 0.00 0.00 0.00 0.00 0.00 0.01 0.00 0.00 0.00 0.00 0.00 0.00 0.00 0.00 0.00 0.00 0.00 0.00 0.00 0.00 0.00 0.00 0.00 0.00 0.00 0.00 0.01 0.02 0.03 0.04 0.04 0.05
0.00 0.00 0.00 0.00 0.00 0.00 0.01 0.01 0.02 0.04 0.03 0.01 0.00 0.00 0.00 0.00 0.01 0.01 0.00 0.00 0.01 0.00 0.00 0.00 0.00 0.00 0.00 0.00 0.00 0.00 0.00 0.00 0.00 0.00 0.00 0.00 0.01 0.01 0.02 0.02 0.03 0.04 0.06
0.01 0.01 0.01 0.03 0.01 0.02 0.05 0.07 0.10 0.11 0.10 0.03 0.01 0.00 0.00 0.00 0.00 0.00 0.00 0.02 0.02 0.00 0.02 0.03 0.02 0.00 0.02 0.02 0.00 0.00 0.00 0.00 0.00 0.00 0.00 0.00 0.01 0.01 0.01 0.01 0.02 0.03 0.04
0.08 0.08 0.11 0.09 0.04 0.05 0.09 0.10 0.10 0.09 0.07 0.06 0.04 0.03 0.02 0.02 0.02 0.01 0.00 0.03 0.08 0.08 0.11 0.09 0.05 0.05 0.05 0.02 0.00 0.00 0.00 0.00 0.00 0.00 0.00 0.00 0.00 0.00 0.01 0.01 0.01 0.02 0.02
0.14 0.20 0.21 0.10 0.06 0.04 0.06 0.05 0.05 0.05 0.04 0.03 0.03 0.03 0.02 0.02 0.03 0.04 0.04 0.11 0.28 0.29 0.17 0.06 0.04 0.02 0.01 0.00 0.00 0.00 0.00 0.00 0.00 0.00 0.00 0.00 0.00 0.00 0.00 0.01 0.01 0.01 0.01
0.09 0.07 0.09 0.08 0.06 0.05 0.05 0.06 0.09 0.09 0.07 0.06 0.05 0.04 0.02 0.02 0.04 0.11 0.16 0.26 0.25 0.22 0.18 0.16 0.11 0.03 0.00 0.00 0.00 0.00 0.00 0.00 0.00 0.01 0.00 0.00 0.00 0.00 0.01 0.02 0.01 0.00 0.00
0.05 0.05 0.06 0.10 0.12 0.11 0.15 0.17 0.15 0.14 0.16 0.14 0.17 0.14 0.12 0.14 0.16 0.16 0.22 0.23 0.20 0.17 0.21 0.19 0.05 0.01 0.01 0.00 0.00 0.00 0.00 0.00 0.00 0.00 0.00 0.00 0.00 0.00 0.03 0.03 0.02 0.01 0.01
0.07 0.07 0.07 0.09 0.14 0.17 0.26 0.29 0.26 0.30 0.27 0.31 0.29 0.27 0.25 0.22 0.24 0.31 0.28 0.24 0.22 0.15 0.14 0.15 0.02 0.01 0.01 0.02 0.01 0.00 0.00 0.00 0.00 0.00 0.00 0.01 0.00 0.00 0.01 0.01 0.00 0.01 0.01
0.05 0.06 0.11 0.16 0.23 0.27 0.26 0.26 0.25 0.29 0.28 0.23 0.22 0.21 0.27 0.35 0.42 0.43 0.40 0.34 0.28 0.22 0.17 0.07 0.03 0.01 0.01 0.00 0.00 0.00 0.00 0.00 0.00 0.00 0.00 0.00 0.00 0.01 0.01 0.01 0.00 0.01 0.01
0.06 0.06 0.10 0.13 0.17 0.18 0.17 0.20 0.19 0.20 0.19 0.18 0.19 0.21 0.25 0.32 0.28 0.32 0.33 0.27 0.20 0.16 0.13 0.08 0.04 0.01 0.00 0.00 0.00 0.01 0.01 0.00 0.00 0.00 0.00 0.00 0.00 0.00 0.00 0.01 0.01 0.00 0.01
0.04 0.03 0.05 0.05 0.07 0.08 0.15 0.16 0.15 0.13 0.14 0.15 0.16 0.18 0.22 0.23 0.19 0.20 0.22 0.17 0.11 0.09 0.07 0.05 0.03 0.02 0.01 0.00 0.01 0.01 0.02 0.01 0.00 0.00 0.01 0.00 0.00 0.00 0.01 0.00 0.01 0.01 0.04
0.03 0.03 0.04 0.06 0.07 0.08 0.13 0.12 0.14 0.13 0.13 0.12 0.08 0.08 0.11 0.11 0.15 0.11 0.13 0.12 0.08 0.06 0.03 0.03 0.02 0.02 0.01 0.01 0.02 0.01 0.01 0.01 0.02 0.00 0.01 0.01 0.01 0.02 0.03 0.04 0.04 0.04 0.05
0.12 0.14 0.13 0.16 0.14 0.20 0.23 0.14 0.12 0.09 0.09 0.09 0.09 0.09 0.09 0.06 0.07 0.07 0.06 0.07 0.06 0.04 0.02 0.02 0.01 0.00 0.01 0.01 0.01 0.02 0.01 0.01 0.01 0.01 0.01 0.01 0.01 0.02 0.04 0.04 0.05 0.05 0.08
0.18 0.16 0.16 0.16 0.16 0.22 0.30 0.22 0.17 0.07 0.10 0.10 0.09 0.09 0.09 0.06 0.09 0.09 0.05 0.05 0.05 0.05 0.04 0.04 0.03 0.03 0.03 0.03 0.01 0.01 0.00 0.01 0.00 0.01 0.01 0.01 0.02 0.02 0.02 0.03 0.08 0.19 0.23
0.21 0.22 0.21 0.18 0.20 0.17 0.23 0.18 0.15 0.08 0.13 0.13 0.14 0.14 0.20 0.11 0.19 0.13 0.06 0.05 0.08 0.07 0.03 0.03 0.05 0.05 0.05 0.06 0.05 0.02 0.01 0.02 0.02 0.01 0.01 0.01 0.02 0.03 0.02 0.07 0.13 0.24 0.47

GFSMA_prec_precacc24_252.txt.gz
Total_Precipitation_Accumulation
0.00 0.00 0.00 0.00 0.00 0.00 0.00 0.00 0.00 0.00 0.00 0.00 0.00 0.00 0.00 0.00 0.00 0.00 0.00 0.00 0.00 0.00 0.00 0.00 0.02 0.01 0.02 0.02 0.01 0.01 0.01 0.01 0.01 0.01 0.01 0.01 0.00 0.00 0.00 0.00 0.00 0.00 0.00
0.00 0.00 0.00 0.00 0.00 0.00 0.00 0.00 0.00 0.00 0.00 0.00 0.00 0.00 0.00 0.00 0.00 0.00 0.00 0.00 0.00 0.00 0.00 0.00 0.02 0.02 0.01 0.00 0.00 0.00 0.00 0.00 0.00 0.00 0.00 0.00 0.00 0.00 0.00 0.00 0.00 0.00 0.00
0.00 0.00 0.00 0.00 0.00 0.00 0.00 0.00 0.00 0.00 0.00 0.00 0.00 0.00 0.00 0.00 0.01 0.01 0.02 0.03 0.00 0.00 0.00 0.00 0.00 0.00 0.00 0.00 0.00 0.00 0.00 0.00 0.00 0.00 0.00 0.00 0.01 0.01 0.01 0.01 0.00 0.01 0.01
0.00 0.00 0.00 0.00 0.00 0.00 0.00 0.00 0.00 0.00 0.00 0.00 0.00 0.01 0.02 0.04 0.05 0.04 0.04 0.04 0.03 0.01 0.00 0.00 0.00 0.00 0.00 0.00 0.00 0.00 0.00 0.00 0.00 0.00 0.00 0.00 0.00 0.00 0.00 0.01 0.01 0.02 0.03
0.00 0.00 0.00 0.00 0.00 0.00 0.00 0.00 0.00 0.00 0.01 0.03 0.05 0.06 0.07 0.07 0.06 0.03 0.03 0.02 0.02 0.02 0.01 0.00 0.00 0.00 0.00 0.00 0.00 0.00 0.00 0.00 0.00 0.00 0.00 0.00 0.00 0.00 0.00 0.00 0.00 0.00 0.01
0.00 0.00 0.00 0.00 0.00 0.00 0.00 0.00 0.00 0.00 0.01 0.06 0.04 0.04 0.06 0.05 0.05 0.02 0.00 0.00 0.00 0.01 0.00 0.00 0.00 0.00 0.00 0.00 0.00 0.00 0.00 0.00 0.00 0.00 0.00 0.00 0.00 0.00 0.00 0.00 0.00 0.00 0.00
0.00 0.00 0.00 0.00 0.00 0.00 0.00 0.00 0.00 0.01 0.01 0.03 0.05 0.04 0.04 0.03 0.03 0.01 0.00 0.00 0.01 0.01 0.00 0.00 0.00 0.00 0.00 0.00 0.00 0.00 0.00 0.00 0.00 0.00 0.00 0.00 0.00 0.00 0.00 0.00 0.00 0.00 0.00
0.00 0.00 0.00 0.00 0.00 0.00 0.00 0.01 0.01 0.01 0.01 0.01 0.02 0.02 0.02 0.01 0.00 0.00 0.00 0.00 0.00 0.00 0.00 0.00 0.00 0.00 0.00 0.00 0.00 0.00 0.00 0.00 0.00 0.00 0.00 0.00 0.00 0.00 0.00 0.00 0.00 0.00 0.01
0.00 0.00 0.00 0.00 0.00 0.00 0.00 0.01 0.01 0.02 0.01 0.00 0.00 0.01 0.00 0.00 0.01 0.00 0.00 0.00 0.00 0.00 0.00 0.00 0.00 0.00 0.00 0.00 0.00 0.00 0.00 0.00 0.00 0.00 0.00 0.00 0.00 0.00 0.00 0.00 0.00 0.01 0.02
0.00 0.00 0.00 0.00 0.00 0.00 0.00 0.01 0.01 0.01 0.01 0.01 0.00 0.00 0.00 0.00 0.00 0.00 0.00 0.00 0.00 0.00 0.00 0.00 0.00 0.00 0.00 0.00 0.00 0.00 0.00 0.00 0.00 0.00 0.00 0.00 0.00 0.00 0.00 0.01 0.02 0.03 0.04
0.00 0.00 0.00 0.00 0.00 0.00 0.00 0.00 0.01 0.01 0.01 0.01 0.00 0.00 0.00 0.00 0.00 0.00 0.00 0.00 0.01 0.00 0.00 0.00 0.00 0.00 0.00 0.00 0.00 0.00 0.01 0.03 0.01 0.00 0.00 0.00 0.00 0.00 0.01 0.02 0.03 0.03 0.04
0.01 0.00 0.00 0.00 0.00 0.00 0.00 0.00 0.01 0.01 0.01 0.00 0.00 0.00 0.00 0.00 0.01 0.00 0.00 0.00 0.00 0.00 0.00 0.00 0.00 0.00 0.00 0.00 0.00 0.01 0.02 0.02 0.00 0.00 0.00 0.00 0.00 0.01 0.02 0.02 0.03 0.03 0.04
0.02 0.01 0.00 0.00 0.00 0.00 0.01 0.01 0.02 0.04 0.03 0.02 0.01 0.02 0.05 0.05 0.09 0.05 0.02 0.01 0.01 0.00 0.00 0.00 0.00 0.00 0.01 0.01 0.02 0.06 0.03 0.00 0.00 0.00 0.00 0.00 0.01 0.01 0.02 0.02 0.02 0.03 0.04
0.05 0.04 0.02 0.04 0.01 0.01 0.05 0.07 0.10 0.11 0.12 0.08 0.11 0.10 0.18 0.10 0.14 0.11 0.06 0.04 0.03 0.00 0.02 0.03 0.03 0.03 0.07 0.07 0.07 0.12 0.07 0.02 0.00 0.00 0.00 0.00 0.01 0.01 0.01 0.01 0.02 0.02 0.03
0.26 0.25 0.36 0.28 0.20 0.14 0.11 0.14 0.13 0.11 0.15 0.17 0.18 0.26 0.21 0.16 0.08 0.06 0.07 0.09 0.22 0.16 0.13 0.10 0.08 0.13 0.18 0.16 0.12 0.08 0.04 0.02 0.00 0.00 0.00 0.00 0.00 0.00 0.00 0.01 0.01 0.01 0.02
0.72 0.79 0.77 0.66 0.76 0.63 0.48 0.44 0.31 0.29 0.27 0.32 0.33 0.26 0.16 0.11 0.10 0.08 0.08 0.18 0.43 0.50 0.29 0.13 0.08 0.09 0.10 0.08 0.07 0.07 0.14 0.23 0.12 0.02 0.01 0.00 0.00 0.00 0.00 0.00 0.00 0.01 0.01
0.63 0.63 0.74 0.52 0.25 0.31 0.57 0.79 0.96 0.85 0.40 0.27 0.29 0.25 0.16 0.13 0.12 0.18 0.26 0.40 0.42 0.50 0.41 0.32 0.25 0.20 0.18 0.19 0.32 0.56 0.51 0.22 0.05 0.01 0.00 0.00 0.00 0.00 0.00 0.00 0.00 0.00 0.00
0.16 0.17 0.18 0.25 0.25 0.25 0.30 0.46 0.62 0.63 0.49 0.37 0.43 0.32 0.23 0.30 0.26 0.35 0.31 0.37 0.44 0.51 0.59 0.43 0.39 0.41 0.41 0.50 0.49 0.29 0.13 0.08 0.03 0.00 0.00 0.00 0.00 0.00 0.00 0.00 0.00 0.00 0.00
0.08 0.11 0.12 0.16 0.21 0.28 0.35 0.38 0.40 0.44 0.36 0.42 0.46 0.41 0.37 0.46 0.32 0.45 0.49 0.47 0.49 0.47 0.47 0.49 0.48 0.48 0.44 0.43 0.35 0.25 0.18 0.11 0.10 0.02 0.01 0.01 0.00 0.00 0.00 0.00 0.00 0.00 0.00
0.04 0.05 0.09 0.15 0.22 0.30 0.33 0.34 0.34 0.37 0.31 0.26 0.27 0.26 0.38 0.47 0.54 0.63 0.67 0.69 0.68 0.58 0.50 0.43 0.47 0.51 0.43 0.28 0.23 0.19 0.14 0.09 0.02 0.01 0.02 0.01 0.01 0.00 0.00 0.00 0.00 0.01 0.00
0.06 0.06 0.10 0.12 0.17 0.22 0.24 0.28 0.28 0.26 0.24 0.22 0.22 0.23 0.28 0.36 0.33 0.47 0.48 0.42 0.38 0.33 0.28 0.23 0.21 0.19 0.14 0.15 0.17 0.12 0.06 0.03 0.03 0.03 0.04 0.01 0.00 0.00 0.00 0.00 0.00 0.00 0.00
0.04 0.03 0.05 0.05 0.07 0.08 0.18 0.22 0.20 0.18 0.19 0.19 0.23 0.32 0.30 0.29 0.24 0.28 0.30 0.28 0.22 0.17 0.13 0.11 0.08 0.07 0.06 0.07 0.10 0.10 0.11 0.12 0.14 0.09 0.06 0.02 0.01 0.01 0.01 0.00 0.01 0.00 0.00
0.03 0.03 0.04 0.06 0.07 0.08 0.14 0.14 0.16 0.16 0.15 0.15 0.11 0.12 0.16 0.18 0.25 0.18 0.21 0.19 0.16 0.16 0.12 0.08 0.06 0.06 0.07 0.09 0.14 0.16 0.17 0.18 0.13 0.07 0.06 0.06 0.04 0.06 0.07 0.05 0.03 0.01 0.00
0.12 0.14 0.13 0.16 0.14 0.20 0.24 0.15 0.13 0.09 0.09 0.09 0.09 0.10 0.09 0.08 0.09 0.10 0.10 0.11 0.10 0.11 0.11 0.08 0.04 0.04 0.07 0.09 0.08 0.08 0.08 0.07 0.08 0.10 0.11 0.13 0.19 0.17 0.05 0.01 0.02 0.01 0.00
0.19 0.16 0.16 0.16 0.16 0.22 0.31 0.23 0.17 0.07 0.10 0.10 0.09 0.09 0.10 0.07 0.14 0.13 0.07 0.06 0.07 0.08 0.14 0.11 0.08 0.08 0.07 0.05 0.04 0.05 0.06 0.10 0.14 0.20 0.19 0.16 0.09 0.02 0.01 0.00 0.00 0.02 0.01
0.21 0.22 0.21 0.18 0.20 0.17 0.24 0.19 0.15 0.08 0.13 0.13 0.14 0.14 0.25 0.13 0.24 0.22 0.09 0.08 0.12 0.16 0.14 0.17 0.16 0.14 0.11 0.11 0.13 0.12 0.14 0.18 0.24 0.27 0.21 0.11 0.05 0.02 0.01 0.01 0.01 0.01 0.01

GFSMA_prec_precacc24_258.txt.gz
Total_Precipitation_Accumulation
0.00 0.00 0.00 0.00 0.00 0.00 0.00 0.00 0.00 0.00 0.00 0.00 0.00 0.00 0.00 0.00 0.00 0.00 0.00 0.00 0.00 0.00 0.00 0.00 0.02 0.01 0.02 0.01 0.00 0.00 0.00 0.00 0.00 0.00 0.00 0.00 0.00 0.00 0.00 0.00 0.00 0.00 0.00
0.00 0.00 0.00 0.00 0.00 0.00 0.00 0.00 0.00 0.00 0.00 0.00 0.00 0.00 0.00 0.00 0.00 0.00 0.00 0.00 0.00 0.00 0.00 0.00 0.02 0.03 0.03 0.03 0.00 0.00 0.00 0.00 0.00 0.00 0.00 0.00 0.00 0.00 0.00 0.00 0.00 0.00 0.00
0.00 0.00 0.00 0.00 0.00 0.00 0.00 0.00 0.00 0.00 0.00 0.00 0.00 0.00 0.00 0.00 0.01 0.00 0.01 0.02 0.00 0.00 0.00 0.00 0.00 0.00 0.01 0.01 0.01 0.00 0.00 0.00 0.00 0.00 0.00 0.00 0.00 0.00 0.00 0.00 0.00 0.00 0.00
0.00 0.00 0.00 0.00 0.00 0.00 0.00 0.00 0.00 0.00 0.00 0.00 0.00 0.00 0.01 0.02 0.02 0.03 0.02 0.03 0.02 0.01 0.00 0.00 0.00 0.00 0.00 0.00 0.00 0.00 0.00 0.00 0.00 0.00 0.00 0.00 0.00 0.00 0.00 0.00 0.00 0.00 0.00
0.00 0.00 0.00 0.00 0.00 0.00 0.00 0.00 0.00 0.00 0.00 0.01 0.03 0.03 0.04 0.05 0.05 0.03 0.03 0.01 0.01 0.02 0.01 0.00 0.00 0.00 0.00 0.00 0.01 0.00 0.00 0.00 0.00 0.00 0.00 0.00 0.00 0.00 0.00 0.00 0.00 0.00 0.00
0.00 0.00 0.00 0.00 0.00 0.00 0.00 0.00 0.00 0.00 0.00 0.02 0.01 0.03 0.05 0.05 0.05 0.02 0.00 0.00 0.00 0.01 0.00 0.00 0.00 0.00 0.00 0.00 0.00 0.00 0.00 0.00 0.00 0.00 0.00 0.00 0.00 0.00 0.00 0.00 0.00 0.00 0.00
0.00 0.00 0.00 0.00 0.00 0.00 0.00 0.00 0.00 0.00 0.00 0.02 0.03 0.03 0.04 0.03 0.03 0.01 0.00 0.00 0.01 0.01 0.00 0.00 0.00 0.00 0.00 0.00 0.00 0.00 0.00 0.00 0.00 0.00 0.00 0.00 0.00 0.00 0.00 0.00 0.00 0.00 0.00
0.00 0.00 0.00 0.00 0.00 0.00 0.00 0.00 0.00 0.00 0.01 0.01 0.02 0.02 0.02 0.01 0.00 0.00 0.00 0.00 0.00 0.00 0.00 0.00 0.00 0.00 0.00 0.00 0.00 0.00 0.00 0.00 0.00 0.00 0.00 0.00 0.00 0.00 0.00 0.00 0.00 0.00 0.00
0.00 0.00 0.00 0.00 0.00 0.00 0.00 0.00 0.00 0.00 0.00 0.00 0.00 0.01 0.00 0.00 0.01 0.00 0.00 0.00 0.00 0.00 0.00 0.00 0.00 0.00 0.00 0.00 0.00 0.00 0.00 0.00 0.00 0.00 0.00 0.00 0.00 0.00 0.00 0.00 0.00 0.01 0.02
0.00 0.00 0.00 0.00 0.00 0.00 0.00 0.00 0.00 0.00 0.00 0.00 0.00 0.00 0.00 0.00 0.00 0.00 0.00 0.00 0.00 0.00 0.00 0.00 0.00 0.00 0.00 0.00 0.00 0.00 0.00 0.01 0.00 0.00 0.00 0.00 0.00 0.00 0.00 0.01 0.01 0.02 0.03
0.00 0.00 0.00 0.00 0.00 0.00 0.00 0.00 0.00 0.00 0.00 0.00 0.00 0.00 0.00 0.00 0.00 0.00 0.00 0.00 0.01 0.00 0.00 0.00 0.00 0.00 0.00 0.00 0.00 0.00 0.01 0.05 0.03 0.03 0.04 0.02 0.00 0.00 0.01 0.02 0.03 0.03 0.03
0.07 0.02 0.00 0.00 0.00 0.00 0.00 0.00 0.00 0.00 0.00 0.00 0.00 0.00 0.00 0.01 0.01 0.01 0.00 0.01 0.00 0.02 0.03 0.02 0.01 0.01 0.01 0.01 0.02 0.03 0.05 0.09 0.12 0.10 0.09 0.04 0.02 0.01 0.02 0.02 0.02 0.02 0.03
0.07 0.13 0.17 0.09 0.02 0.00 0.00 0.00 0.00 0.00 0.00 0.01 0.02 0.04 0.09 0.11 0.16 0.17 0.15 0.07 0.06 0.04 0.05 0.04 0.01 0.02 0.03 0.02 0.03 0.15 0.16 0.14 0.15 0.09 0.05 0.02 0.04 0.06 0.05 0.03 0.02 0.02 0.03
0.06 0.08 0.12 0.14 0.07 0.03 0.02 0.00 0.01 0.01 0.04 0.10 0.20 0.24 0.29 0.17 0.34 0.37 0.33 0.30 0.23 0.11 0.06 0.05 0.05 0.06 0.11 0.11 0.12 0.25 0.21 0.15 0.11 0.07 0.05 0.07 0.15 0.17 0.10 0.05 0.02 0.02 0.02
0.25 0.25 0.35 0.28 0.21 0.14 0.07 0.07 0.05 0.03 0.11 0.16 0.22 0.37 0.35 0.31 0.30 0.32 0.31 0.26 0.41 0.27 0.16 0.12 0.11 0.16 0.24 0.19 0.14 0.10 0.09 0.08 0.14 0.19 0.29 0.30 0.21 0.13 0.03 0.01 0.01 0.01 0.01
0.67 0.76 0.78 0.76 0.82 0.70 0.58 0.56 0.40 0.33 0.35 0.42 0.46 0.43 0.38 0.31 0.28 0.20 0.18 0.29 0.57 0.66 0.44 0.17 0.12 0.16 0.19 0.15 0.15 0.16 0.20 0.36 0.39 0.24 0.13 0.11 0.10 0.13 0.09 0.04 0.00 0.00 0.00
0.64 0.68 0.80 0.78 0.55 0.45 0.65 0.88 1.08 1.13 0.91 0.74 0.67 0.47 0.26 0.24 0.22 0.27 0.34 0.49 0.53 0.64 0.57 0.39 0.31 0.30 0.30 0.32 0.46 0.68 0.60 0.31 0.12 0.07 0.06 0.09 0.15 0.15 0.09 0.02 0.00 0.00 0.00
0.33 0.34 0.34 0.40 0.40 0.39 0.39 0.56 0.76 0.82 0.73 0.66 0.81 0.58 0.33 0.41 0.36 0.44 0.40 0.45 0.52 0.61 0.65 0.48 0.44 0.47 0.49 0.63 0.60 0.38 0.21 0.17 0.13 0.19 0.22 0.17 0.09 0.02 0.01 0.02 0.03 0.01 0.00
0.11 0.16 0.18 0.25 0.33 0.41 0.39 0.39 0.43 0.47 0.42 0.49 0.55 0.48 0.43 0.56 0.42 0.56 0.59 0.54 0.54 0.52 0.55 0.58 0.54 0.54 0.50 0.51 0.47 0.36 0.29 0.22 0.23 0.18 0.07 0.04 0.02 0.03 0.04 0.05 0.02 0.01 0.00
0.04 0.05 0.08 0.13 0.23 0.31 0.35 0.37 0.37 0.41 0.40 0.33 0.33 0.34 0.47 0.52 0.56 0.67 0.72 0.74 0.74 0.67 0.59 0.53 0.56 0.59 0.49 0.34 0.29 0.25 0.20 0.15 0.08 0.05 0.07 0.08 0.11 0.16 0.15 0.09 0.05 0.02 0.02
0.04 0.03 0.06 0.10 0.16 0.21 0.24 0.30 0.31 0.31 0.35 0.38 0.38 0.36 0.39 0.48 0.44 0.54 0.54 0.47 0.47 0.42 0.37 0.32 0.28 0.26 0.21 0.23 0.21 0.16 0.13 0.12 0.10 0.09 0.14 0.22 0.22 0.14 0.07 0.05 0.07 0.07 0.06
0.01 0.02 0.04 0.05 0.07 0.08 0.18 0.22 0.21 0.18 0.19 0.20 0.27 0.38 0.38 0.40 0.35 0.41 0.41 0.39 0.33 0.26 0.19 0.19 0.14 0.12 0.09 0.10 0.13 0.15 0.17 0.20 0.26 0.26 0.25 0.16 0.08 0.06 0.07 0.08 0.14 0.11 0.04
0.01 0.02 0.03 0.04 0.04 0.06 0.13 0.14 0.17 0.16 0.15 0.15 0.11 0.12 0.16 0.20 0.28 0.20 0.25 0.23 0.20 0.20 0.17 0.12 0.09 0.09 0.10 0.15 0.18 0.20 0.21 0.22 0.16 0.11 0.11 0.12 0.11 0.11 0.18 0.22 0.14 0.02 0.00
0.07 0.09 0.08 0.10 0.08 0.15 0.23 0.15 0.13 0.09 0.09 0.09 0.09 0.10 0.09 0.08 0.10 0.11 0.11 0.11 0.10 0.12 0.13 0.10 0.05 0.05 0.08 0.10 0.09 0.10 0.10 0.10 0.11 0.12 0.12 0.14 0.21 0.22 0.12 0.05 0.04 0.01 0.00
0.10 0.10 0.11 0.12 0.13 0.19 0.31 0.23 0.18 0.07 0.10 0.10 0.09 0.09 0.10 0.07 0.14 0.14 0.07 0.06 0.07 0.08 0.15 0.13 0.09 0.09 0.08 0.06 0.05 0.05 0.07 0.10 0.15 0.19 0.20 0.18 0.15 0.10 0.07 0.04 0.01 0.00 0.00
0.09 0.10 0.13 0.13 0.17 0.16 0.23 0.19 0.15 0.08 0.13 0.13 0.14 0.14 0.25 0.13 0.24 0.22 0.09 0.08 0.12 0.16 0.14 0.17 0.16 0.14 0.12 0.11 0.13 0.12 0.13 0.18 0.25 0.29 0.24 0.15 0.10 0.07 0.06 0.03 0.01 0.00 0.00

GFSMA_prec_precacc24_261.txt.gz
Total_Precipitation_Accumulation
0.00 0.00 0.00 0.00 0.00 0.00 0.00 0.00 0.00 0.00 0.00 0.00 0.00 0.00 0.00 0.00 0.00 0.00 0.00 0.00 0.00 0.00 0.00 0.00 0.02 0.01 0.02 0.01 0.00 0.00 0.00 0.00 0.00 0.00 0.00 0.00 0.00 0.00 0.00 0.00 0.00 0.00 0.00
0.00 0.00 0.00 0.00 0.00 0.00 0.00 0.00 0.00 0.00 0.00 0.00 0.00 0.00 0.00 0.00 0.00 0.00 0.00 0.00 0.00 0.00 0.00 0.00 0.02 0.03 0.03 0.03 0.00 0.00 0.00 0.00 0.00 0.00 0.00 0.00 0.00 0.00 0.00 0.00 0.00 0.00 0.00
0.00 0.00 0.00 0.00 0.00 0.00 0.00 0.00 0.00 0.00 0.00 0.00 0.00 0.00 0.00 0.00 0.00 0.00 0.00 0.00 0.00 0.00 0.00 0.00 0.00 0.00 0.01 0.02 0.01 0.00 0.00 0.00 0.00 0.00 0.00 0.00 0.00 0.00 0.00 0.00 0.00 0.00 0.00
0.00 0.00 0.00 0.00 0.00 0.00 0.00 0.00 0.00 0.00 0.00 0.00 0.00 0.00 0.00 0.00 0.00 0.00 0.01 0.02 0.01 0.00 0.00 0.00 0.00 0.00 0.00 0.00 0.01 0.00 0.00 0.00 0.00 0.00 0.00 0.00 0.00 0.00 0.00 0.00 0.00 0.00 0.00
0.00 0.00 0.00 0.00 0.00 0.00 0.00 0.00 0.00 0.00 0.00 0.00 0.00 0.00 0.00 0.01 0.02 0.01 0.02 0.01 0.00 0.01 0.01 0.00 0.00 0.00 0.00 0.00 0.01 0.00 0.00 0.00 0.00 0.00 0.00 0.00 0.00 0.00 0.00 0.00 0.00 0.00 0.00
0.00 0.00 0.00 0.00 0.00 0.00 0.00 0.00 0.00 0.00 0.00 0.00 0.00 0.01 0.01 0.02 0.03 0.01 0.00 0.00 0.00 0.01 0.00 0.00 0.00 0.00 0.00 0.00 0.00 0.00 0.00 0.00 0.00 0.00 0.00 0.00 0.00 0.00 0.00 0.00 0.00 0.00 0.00
0.00 0.00 0.00 0.00 0.00 0.00 0.00 0.00 0.00 0.00 0.00 0.00 0.01 0.01 0.01 0.01 0.01 0.00 0.00 0.00 0.01 0.01 0.00 0.00 0.00 0.00 0.00 0.00 0.00 0.00 0.00 0.00 0.00 0.00 0.00 0.00 0.00 0.00 0.00 0.00 0.00 0.00 0.00
0.00 0.00 0.00 0.00 0.00 0.00 0.00 0.00 0.00 0.00 0.00 0.00 0.01 0.01 0.01 0.01 0.00 0.00 0.00 0.00 0.00 0.00 0.00 0.00 0.00 0.00 0.00 0.00 0.00 0.00 0.00 0.00 0.00 0.00 0.00 0.00 0.00 0.00 0.00 0.00 0.00 0.00 0.00
0.00 0.00 0.00 0.00 0.00 0.00 0.00 0.00 0.00 0.00 0.00 0.00 0.00 0.00 0.00 0.00 0.01 0.00 0.00 0.00 0.00 0.00 0.00 0.00 0.00 0.00 0.00 0.00 0.00 0.00 0.00 0.00 0.00 0.00 0.00 0.00 0.01 0.01 0.00 0.00 0.00 0.01 0.02
0.00 0.00 0.00 0.00 0.00 0.00 0.00 0.00 0.00 0.00 0.00 0.00 0.00 0.00 0.00 0.00 0.00 0.00 0.00 0.00 0.00 0.00 0.00 0.00 0.00 0.00 0.00 0.00 0.00 0.00 0.00 0.01 0.03 0.02 0.00 0.02 0.02 0.03 0.02 0.01 0.02 0.02 0.03
0.00 0.00 0.00 0.00 0.00 0.00 0.00 0.00 0.00 0.00 0.00 0.00 0.00 0.00 0.00 0.00 0.00 0.00 0.00 0.00 0.00 0.00 0.00 0.00 0.00 0.00 0.00 0.00 0.00 0.00 0.02 0.07 0.08 0.07 0.06 0.02 0.02 0.07 0.06 0.04 0.04 0.04 0.04
0.07 0.02 0.00 0.00 0.00 0.00 0.00 0.00 0.00 0.00 0.00 0.00 0.00 0.00 0.00 0.00 0.00 0.00 0.00 0.00 0.00 0.02 0.03 0.02 0.01 0.01 0.01 0.01 0.02 0.05 0.09 0.13 0.17 0.16 0.14 0.09 0.08 0.14 0.11 0.10 0.06 0.05 0.03
0.09 0.14 0.18 0.09 0.02 0.00 0.00 0.00 0.00 0.00 0.00 0.00 0.01 0.04 0.09 0.11 0.16 0.17 0.14 0.07 0.06 0.04 0.06 0.04 0.01 0.02 0.03 0.02 0.03 0.15 0.17 0.16 0.18 0.15 0.11 0.09 0.13 0.16 0.13 0.11 0.10 0.09 0.12
0.06 0.08 0.12 0.15 0.08 0.03 0.02 0.00 0.00 0.00 0.03 0.10 0.20 0.24 0.29 0.17 0.34 0.37 0.33 0.32 0.24 0.12 0.07 0.05 0.05 0.06 0.11 0.11 0.12 0.25 0.21 0.16 0.15 0.12 0.11 0.15 0.23 0.27 0.24 0.21 0.28 0.32 0.23
0.25 0.25 0.35 0.27 0.20 0.14 0.06 0.06 0.05 0.03 0.11 0.16 0.22 0.37 0.34 0.31 0.31 0.32 0.31 0.27 0.42 0.28 0.16 0.12 0.11 0.16 0.24 0.19 0.14 0.11 0.10 0.09 0.16 0.23 0.35 0.38 0.30 0.23 0.25 0.29 0.23 0.12 0.06
0.68 0.77 0.79 0.76 0.82 0.69 0.58 0.55 0.40 0.33 0.35 0.42 0.46 0.42 0.38 0.31 0.28 0.20 0.18 0.29 0.57 0.67 0.45 0.17 0.12 0.16 0.19 0.15 0.16 0.19 0.23 0.37 0.40 0.26 0.16 0.14 0.14 0.17 0.19 0.15 0.07 0.03 0.01
0.64 0.68 0.81 0.80 0.58 0.47 0.68 0.91 1.06 1.11 0.92 0.77 0.68 0.47 0.27 0.27 0.26 0.29 0.34 0.49 0.53 0.66 0.59 0.41 0.31 0.30 0.30 0.33 0.49 0.72 0.65 0.32 0.13 0.09 0.08 0.10 0.17 0.18 0.11 0.04 0.01 0.01 0.01
0.33 0.34 0.34 0.41 0.40 0.38 0.39 0.55 0.76 0.84 0.76 0.71 0.85 0.62 0.35 0.47 0.43 0.48 0.41 0.45 0.52 0.61 0.66 0.49 0.44 0.47 0.50 0.68 0.65 0.43 0.27 0.22 0.16 0.22 0.24 0.19 0.12 0.05 0.04 0.04 0.04 0.03 0.04
0.10 0.16 0.19 0.27 0.31 0.40 0.40 0.39 0.41 0.52 0.46 0.53 0.57 0.49 0.45 0.61 0.47 0.59 0.61 0.55 0.54 0.53 0.56 0.59 0.54 0.54 0.52 0.57 0.53 0.43 0.36 0.28 0.26 0.21 0.09 0.06 0.04 0.05 0.06 0.06 0.04 0.03 0.02
0.03 0.04 0.08 0.10 0.18 0.27 0.31 0.32 0.35 0.42 0.42 0.38 0.36 0.36 0.48 0.54 0.57 0.68 0.73 0.74 0.75 0.68 0.60 0.55 0.57 0.60 0.50 0.36 0.31 0.27 0.23 0.20 0.11 0.07 0.10 0.11 0.13 0.18 0.17 0.12 0.07 0.04 0.04
0.03 0.03 0.06 0.08 0.14 0.18 0.21 0.25 0.28 0.30 0.35 0.39 0.40 0.40 0.45 0.61 0.55 0.62 0.58 0.48 0.48 0.46 0.43 0.36 0.32 0.27 0.22 0.25 0.24 0.20 0.20 0.18 0.14 0.13 0.16 0.23 0.23 0.14 0.09 0.08 0.09 0.10 0.08
0.01 0.02 0.03 0.03 0.05 0.06 0.13 0.17 0.16 0.16 0.19 0.22 0.29 0.41 0.43 0.50 0.49 0.56 0.55 0.48 0.41 0.34 0.27 0.26 0.19 0.14 0.11 0.13 0.16 0.19 0.23 0.26 0.30 0.28 0.25 0.16 0.08 0.06 0.08 0.10 0.19 0.14 0.05
0.00 0.00 0.00 0.01 0.02 0.02 0.07 0.08 0.12 0.14 0.14 0.15 0.12 0.13 0.17 0.21 0.29 0.23 0.30 0.29 0.25 0.26 0.22 0.17 0.11 0.10 0.11 0.17 0.22 0.22 0.23 0.25 0.17 0.12 0.12 0.12 0.11 0.12 0.18 0.25 0.19 0.04 0.01
0.01 0.03 0.03 0.04 0.04 0.07 0.12 0.09 0.10 0.08 0.09 0.09 0.09 0.10 0.09 0.08 0.10 0.11 0.11 0.11 0.10 0.12 0.14 0.11 0.05 0.05 0.08 0.10 0.09 0.11 0.11 0.13 0.13 0.14 0.13 0.16 0.21 0.23 0.13 0.07 0.10 0.02 0.00
0.03 0.03 0.04 0.04 0.05 0.09 0.18 0.15 0.14 0.06 0.09 0.10 0.09 0.09 0.10 0.07 0.14 0.14 0.07 0.06 0.07 0.08 0.15 0.13 0.09 0.09 0.09 0.08 0.07 0.06 0.08 0.12 0.16 0.20 0.20 0.19 0.16 0.11 0.08 0.05 0.03 0.02 0.00
0.01 0.01 0.03 0.03 0.07 0.07 0.15 0.13 0.12 0.07 0.12 0.13 0.14 0.14 0.25 0.13 0.24 0.22 0.09 0.08 0.12 0.16 0.14 0.17 0.16 0.14 0.12 0.11 0.14 0.13 0.13 0.19 0.27 0.31 0.24 0.17 0.12 0.09 0.08 0.04 0.02 0.01 0.01

GFSMA_prec_precacc24_264.txt.gz
Total_Precipitation_Accumulation
0.00 0.00 0.00 0.00 0.00 0.00 0.00 0.00 0.00 0.00 0.00 0.00 0.00 0.00 0.00 0.00 0.00 0.00 0.00 0.00 0.00 0.00 0.00 0.00 0.02 0.01 0.02 0.01 0.00 0.00 0.00 0.00 0.00 0.00 0.00 0.00 0.00 0.00 0.00 0.00 0.00 0.00 0.00
0.00 0.00 0.00 0.00 0.00 0.00 0.00 0.00 0.00 0.00 0.00 0.00 0.00 0.00 0.00 0.00 0.00 0.00 0.00 0.00 0.00 0.00 0.00 0.00 0.02 0.03 0.03 0.03 0.00 0.00 0.00 0.00 0.00 0.00 0.00 0.00 0.00 0.00 0.00 0.00 0.00 0.00 0.00
0.00 0.00 0.00 0.00 0.00 0.00 0.00 0.00 0.00 0.00 0.00 0.00 0.00 0.00 0.00 0.00 0.00 0.00 0.00 0.00 0.00 0.00 0.00 0.00 0.00 0.00 0.01 0.02 0.01 0.00 0.00 0.00 0.00 0.00 0.00 0.00 0.00 0.00 0.00 0.00 0.00 0.00 0.00
0.00 0.00 0.00 0.00 0.00 0.00 0.00 0.00 0.00 0.00 0.00 0.00 0.00 0.00 0.00 0.00 0.00 0.00 0.00 0.00 0.00 0.00 0.00 0.00 0.00 0.00 0.00 0.00 0.01 0.00 0.00 0.00 0.00 0.00 0.00 0.00 0.00 0.00 0.00 0.00 0.00 0.00 0.00
0.00 0.00 0.00 0.00 0.00 0.00 0.00 0.00 0.00 0.00 0.00 0.00 0.00 0.00 0.00 0.00 0.00 0.00 0.00 0.00 0.00 0.00 0.00 0.00 0.00 0.00 0.00 0.00 0.01 0.00 0.00 0.00 0.00 0.00 0.00 0.00 0.00 0.00 0.00 0.00 0.00 0.00 0.00
0.00 0.00 0.00 0.00 0.00 0.00 0.00 0.00 0.00 0.00 0.00 0.00 0.00 0.00 0.00 0.00 0.00 0.00 0.00 0.00 0.00 0.00 0.00 0.00 0.00 0.00 0.00 0.00 0.00 0.00 0.00 0.00 0.00 0.00 0.00 0.00 0.00 0.00 0.00 0.00 0.00 0.00 0.00
0.00 0.00 0.00 0.00 0.00 0.00 0.00 0.00 0.00 0.00 0.00 0.00 0.00 0.00 0.00 0.00 0.00 0.00 0.00 0.00 0.01 0.01 0.00 0.00 0.00 0.00 0.00 0.00 0.00 0.00 0.00 0.00 0.00 0.00 0.00 0.00 0.00 0.00 0.00 0.00 0.00 0.00 0.00
0.00 0.00 0.00 0.00 0.00 0.00 0.00 0.00 0.00 0.00 0.00 0.00 0.00 0.00 0.00 0.00 0.00 0.00 0.00 0.00 0.00 0.00 0.00 0.00 0.00 0.00 0.00 0.00 0.00 0.00 0.00 0.00 0.00 0.00 0.00 0.00 0.00 0.00 0.00 0.00 0.00 0.00 0.00
0.00 0.00 0.00 0.00 0.00 0.00 0.00 0.00 0.00 0.00 0.00 0.00 0.00 0.00 0.00 0.00 0.00 0.00 0.00 0.00 0.00 0.00 0.00 0.00 0.00 0.00 0.00 0.00 0.00 0.00 0.00 0.00 0.00 0.00 0.00 0.00 0.02 0.02 0.01 0.01 0.01 0.01 0.01
0.00 0.00 0.00 0.00 0.00 0.00 0.00 0.00 0.00 0.00 0.00 0.00 0.00 0.00 0.00 0.00 0.00 0.00 0.00 0.00 0.00 0.00 0.00 0.00 0.00 0.00 0.00 0.00 0.00 0.00 0.00 0.01 0.03 0.02 0.01 0.02 0.03 0.04 0.06 0.06 0.04 0.04 0.04
0.00 0.00 0.00 0.00 0.00 0.00 0.00 0.00 0.00 0.00 0.00 0.00 0.00 0.00 0.00 0.00 0.00 0.00 0.00 0.00 0.00 0.00 0.00 0.00 0.00 0.00 0.00 0.00 0.00 0.00 0.02 0.08 0.08 0.07 0.07 0.02 0.02 0.07 0.09 0.07 0.07 0.09 0.10
0.07 0.02 0.00 0.00 0.00 0.00 0.00 0.00 0.00 0.00 0.00 0.00 0.00 0.00 0.00 0.00 0.00 0.00 0.00 0.00 0.00 0.02 0.03 0.02 0.01 0.01 0.01 0.01 0.02 0.05 0.09 0.14 0.17 0.16 0.14 0.09 0.09 0.14 0.12 0.12 0.12 0.12 0.10
0.09 0.14 0.18 0.09 0.03 0.00 0.00 0.00 0.00 0.00 0.00 0.00 0.01 0.04 0.09 0.11 0.16 0.16 0.14 0.06 0.06 0.04 0.06 0.04 0.01 0.02 0.03 0.02 0.03 0.15 0.17 0.16 0.18 0.15 0.11 0.09 0.13 0.17 0.16 0.16 0.16 0.15 0.31
0.08 0.08 0.12 0.15 0.08 0.03 0.02 0.00 0.00 0.00 0.03 0.10 0.19 0.24 0.29 0.17 0.34 0.37 0.33 0.31 0.24 0.12 0.07 0.05 0.05 0.06 0.11 0.11 0.12 0.25 0.21 0.16 0.15 0.12 0.11 0.15 0.23 0.28 0.27 0.25 0.32 0.36 0.29
0.31 0.29 0.36 0.28 0.20 0.14 0.06 0.06 0.05 0.03 0.10 0.16 0.23 0.37 0.34 0.30 0.29 0.32 0.31 0.26 0.41 0.28 0.16 0.12 0.11 0.16 0.24 0.19 0.14 0.11 0.10 0.09 0.16 0.23 0.35 0.38 0.30 0.25 0.27 0.31 0.26 0.14 0.07
0.71 0.82 0.86 0.80 0.83 0.69 0.57 0.55 0.39 0.32 0.34 0.42 0.47 0.43 0.38 0.31 0.25 0.17 0.17 0.28 0.57 0.67 0.45 0.17 0.13 0.16 0.19 0.15 0.16 0.19 0.23 0.37 0.40 0.27 0.17 0.16 0.15 0.18 0.20 0.17 0.10 0.06 0.03
0.65 0.68 0.82 0.84 0.62 0.49 0.71 0.93 1.06 1.11 0.92 0.77 0.69 0.48 0.28 0.27 0.26 0.29 0.38 0.51 0.53 0.65 0.60 0.42 0.34 0.31 0.30 0.33 0.49 0.72 0.65 0.32 0.14 0.12 0.11 0.13 0.19 0.19 0.13 0.06 0.04 0.04 0.03
0.34 0.35 0.35 0.42 0.44 0.43 0.42 0.57 0.82 0.91 0.78 0.70 0.82 0.58 0.34 0.49 0.48 0.55 0.51 0.53 0.59 0.63 0.69 0.50 0.44 0.47 0.50 0.68 0.65 0.43 0.27 0.23 0.17 0.25 0.28 0.21 0.13 0.06 0.05 0.06 0.05 0.05 0.05
0.10 0.16 0.19 0.29 0.32 0.40 0.38 0.39 0.45 0.56 0.52 0.52 0.53 0.42 0.40 0.64 0.52 0.68 0.73 0.67 0.65 0.64 0.62 0.61 0.55 0.54 0.52 0.57 0.53 0.43 0.37 0.30 0.28 0.24 0.11 0.08 0.06 0.07 0.08 0.08 0.05 0.04 0.03
0.03 0.04 0.07 0.10 0.19 0.28 0.30 0.28 0.32 0.35 0.35 0.32 0.29 0.30 0.45 0.56 0.65 0.78 0.82 0.80 0.83 0.76 0.65 0.56 0.57 0.60 0.50 0.36 0.32 0.30 0.26 0.20 0.11 0.07 0.12 0.13 0.15 0.19 0.18 0.12 0.07 0.04 0.04
0.03 0.02 0.05 0.07 0.14 0.18 0.19 0.21 0.24 0.25 0.30 0.33 0.35 0.37 0.44 0.66 0.63 0.70 0.64 0.53 0.53 0.50 0.48 0.43 0.36 0.29 0.23 0.29 0.35 0.31 0.24 0.19 0.15 0.13 0.16 0.24 0.24 0.15 0.10 0.09 0.09 0.10 0.09
0.01 0.01 0.02 0.03 0.04 0.05 0.11 0.14 0.12 0.09 0.10 0.13 0.24 0.40 0.42 0.51 0.52 0.63 0.64 0.58 0.53 0.50 0.41 0.46 0.31 0.20 0.15 0.18 0.22 0.25 0.24 0.26 0.31 0.28 0.25 0.17 0.09 0.08 0.09 0.10 0.22 0.14 0.06
0.00 0.00 0.00 0.01 0.01 0.01 0.04 0.05 0.07 0.07 0.06 0.06 0.08 0.11 0.15 0.19 0.30 0.25 0.34 0.32 0.31 0.34 0.30 0.26 0.19 0.16 0.18 0.23 0.25 0.24 0.26 0.26 0.19 0.13 0.14 0.14 0.13 0.14 0.20 0.28 0.23 0.05 0.02
0.00 0.00 0.00 0.01 0.02 0.04 0.06 0.03 0.03 0.02 0.03 0.04 0.04 0.05 0.07 0.07 0.10 0.11 0.11 0.11 0.11 0.13 0.15 0.13 0.07 0.06 0.10 0.12 0.12 0.13 0.14 0.16 0.16 0.17 0.16 0.19 0.25 0.27 0.16 0.10 0.16 0.03 0.01
0.01 0.01 0.00 0.00 0.00 0.02 0.08 0.07 0.08 0.02 0.05 0.06 0.06 0.07 0.09 0.07 0.14 0.14 0.07 0.06 0.07 0.08 0.15 0.13 0.09 0.09 0.09 0.09 0.07 0.07 0.09 0.13 0.18 0.21 0.22 0.22 0.18 0.16 0.13 0.09 0.08 0.12 0.04
0.00 0.00 0.00 0.00 0.00 0.00 0.03 0.05 0.04 0.02 0.06 0.09 0.11 0.13 0.25 0.13 0.24 0.22 0.09 0.08 0.12 0.16 0.14 0.17 0.16 0.15 0.12 0.11 0.15 0.14 0.14 0.19 0.28 0.32 0.26 0.19 0.15 0.13 0.14 0.10 0.07 0.07 0.04

GFSMA_prec_precacc24_270.txt.gz
Total_Precipitation_Accumulation
0.00 0.00 0.00 0.00 0.00 0.00 0.00 0.00 0.00 0.00 0.00 0.00 0.00 0.00 0.00 0.00 0.00 0.00 0.00 0.00 0.00 0.00 0.00 0.00 0.01 0.01 0.02 0.01 0.00 0.00 0.00 0.00 0.00 0.00 0.00 0.00 0.00 0.00 0.00 0.00 0.00 0.00 0.00
0.00 0.00 0.00 0.00 0.00 0.00 0.00 0.00 0.00 0.00 0.00 0.00 0.00 0.00 0.00 0.00 0.00 0.00 0.00 0.00 0.00 0.00 0.00 0.00 0.02 0.03 0.03 0.03 0.00 0.00 0.00 0.00 0.00 0.00 0.00 0.00 0.00 0.00 0.00 0.00 0.00 0.00 0.00
0.00 0.00 0.00 0.00 0.00 0.00 0.00 0.00 0.00 0.00 0.00 0.00 0.00 0.00 0.00 0.00 0.00 0.00 0.00 0.00 0.00 0.00 0.00 0.00 0.00 0.00 0.01 0.02 0.01 0.00 0.00 0.00 0.00 0.00 0.00 0.00 0.00 0.00 0.00 0.00 0.00 0.00 0.00
0.00 0.00 0.00 0.00 0.00 0.00 0.00 0.00 0.00 0.00 0.00 0.00 0.00 0.00 0.00 0.00 0.00 0.00 0.00 0.00 0.00 0.00 0.00 0.00 0.00 0.00 0.00 0.00 0.01 0.00 0.00 0.00 0.00 0.00 0.00 0.00 0.00 0.00 0.00 0.00 0.00 0.00 0.00
0.00 0.00 0.00 0.00 0.00 0.00 0.00 0.00 0.00 0.00 0.00 0.00 0.00 0.00 0.00 0.00 0.00 0.00 0.00 0.00 0.00 0.00 0.00 0.00 0.00 0.00 0.00 0.00 0.01 0.00 0.00 0.00 0.00 0.00 0.00 0.00 0.00 0.00 0.00 0.00 0.00 0.00 0.00
0.00 0.00 0.00 0.00 0.00 0.00 0.00 0.00 0.00 0.00 0.00 0.00 0.00 0.00 0.00 0.00 0.00 0.00 0.00 0.00 0.00 0.00 0.00 0.00 0.00 0.00 0.00 0.00 0.00 0.00 0.00 0.00 0.00 0.00 0.00 0.00 0.00 0.00 0.00 0.00 0.00 0.00 0.00
0.00 0.00 0.00 0.00 0.00 0.00 0.00 0.00 0.00 0.00 0.00 0.00 0.00 0.00 0.00 0.00 0.00 0.00 0.00 0.00 0.00 0.00 0.00 0.00 0.00 0.00 0.00 0.00 0.00 0.00 0.00 0.00 0.00 0.00 0.00 0.00 0.00 0.00 0.00 0.00 0.00 0.00 0.00
0.00 0.00 0.00 0.00 0.00 0.00 0.00 0.00 0.00 0.00 0.00 0.00 0.00 0.00 0.00 0.00 0.00 0.00 0.00 0.00 0.00 0.00 0.00 0.00 0.00 0.00 0.00 0.00 0.00 0.00 0.00 0.00 0.00 0.00 0.00 0.00 0.00 0.00 0.00 0.00 0.00 0.02 0.06
0.00 0.00 0.00 0.00 0.00 0.00 0.00 0.00 0.00 0.00 0.00 0.00 0.00 0.00 0.00 0.00 0.00 0.00 0.00 0.00 0.00 0.00 0.00 0.00 0.00 0.00 0.00 0.00 0.00 0.00 0.00 0.00 0.00 0.00 0.00 0.00 0.02 0.02 0.01 0.03 0.06 0.15 0.14
0.00 0.00 0.00 0.00 0.00 0.00 0.00 0.00 0.00 0.00 0.00 0.00 0.00 0.00 0.00 0.00 0.00 0.00 0.00 0.00 0.00 0.00 0.00 0.00 0.00 0.00 0.00 0.00 0.00 0.00 0.00 0.01 0.03 0.02 0.01 0.02 0.03 0.05 0.09 0.13 0.13 0.17 0.16
0.01 0.00 0.00 0.00 0.00 0.00 0.00 0.00 0.00 0.00 0.00 0.00 0.00 0.00 0.00 0.00 0.00 0.00 0.00 0.00 0.00 0.00 0.00 0.00 0.00 0.00 0.00 0.00 0.00 0.00 0.02 0.08 0.08 0.07 0.07 0.05 0.10 0.18 0.18 0.14 0.14 0.16 0.15
0.20 0.06 0.03 0.01 0.00 0.00 0.00 0.00 0.00 0.00 0.00 0.00 0.00 0.00 0.00 0.00 0.00 0.00 0.00 0.00 0.00 0.02 0.03 0.02 0.01 0.01 0.01 0.01 0.02 0.05 0.09 0.14 0.17 0.16 0.16 0.19 0.22 0.26 0.21 0.16 0.17 0.16 0.13
0.78 0.79 0.59 0.24 0.07 0.01 0.00 0.00 0.00 0.00 0.00 0.00 0.01 0.04 0.09 0.11 0.16 0.16 0.14 0.06 0.05 0.04 0.06 0.03 0.01 0.02 0.03 0.01 0.03 0.15 0.18 0.20 0.23 0.20 0.17 0.14 0.16 0.20 0.21 0.19 0.18 0.17 0.33
1.33 1.47 1.34 1.10 0.68 0.34 0.15 0.05 0.02 0.01 0.04 0.10 0.19 0.24 0.29 0.17 0.34 0.37 0.33 0.30 0.22 0.12 0.05 0.02 0.03 0.05 0.10 0.10 0.12 0.31 0.28 0.28 0.25 0.18 0.15 0.16 0.24 0.28 0.27 0.26 0.34 0.39 0.32
0.95 1.13 1.37 1.17 1.14 1.12 1.05 0.72 0.33 0.18 0.19 0.19 0.24 0.37 0.34 0.31 0.29 0.32 0.31 0.24 0.34 0.20 0.05 0.03 0.06 0.12 0.19 0.17 0.15 0.18 0.19 0.16 0.19 0.25 0.37 0.39 0.31 0.25 0.28 0.32 0.29 0.18 0.12
1.08 1.30 1.50 1.54 1.59 1.49 1.47 1.62 1.23 0.92 0.84 0.72 0.65 0.55 0.43 0.34 0.28 0.18 0.16 0.17 0.29 0.38 0.28 0.11 0.09 0.14 0.17 0.15 0.16 0.22 0.25 0.38 0.41 0.30 0.19 0.16 0.15 0.19 0.21 0.18 0.13 0.09 0.09
0.92 1.04 1.28 1.36 1.24 1.21 1.52 1.73 1.84 1.77 1.52 1.31 1.26 1.07 0.66 0.51 0.35 0.29 0.29 0.31 0.31 0.45 0.42 0.26 0.24 0.32 0.30 0.34 0.49 0.73 0.66 0.33 0.15 0.12 0.11 0.14 0.19 0.20 0.13 0.07 0.06 0.07 0.07
0.69 0.85 0.91 0.93 1.07 1.26 1.30 1.45 1.65 1.69 1.54 1.37 1.43 1.25 0.95 0.91 0.69 0.64 0.48 0.39 0.45 0.51 0.53 0.33 0.43 0.52 0.55 0.73 0.67 0.49 0.34 0.27 0.19 0.25 0.29 0.22 0.13 0.07 0.06 0.08 0.08 0.07 0.07
0.09 0.21 0.32 0.50 0.61 0.72 0.75 1.01 1.24 1.38 1.48 1.46 1.41 1.20 1.02 1.10 0.87 0.88 0.84 0.67 0.61 0.66 0.65 0.62 0.58 0.58 0.61 0.64 0.59 0.47 0.42 0.37 0.36 0.28 0.13 0.10 0.08 0.09 0.10 0.11 0.08 0.07 0.06
0.01 0.02 0.04 0.09 0.15 0.22 0.30 0.35 0.39 0.44 0.57 0.75 1.00 1.08 1.13 1.12 0.98 0.94 0.96 0.94 1.03 1.02 0.99 1.07 1.10 0.91 0.73 0.58 0.58 0.55 0.48 0.43 0.27 0.21 0.24 0.17 0.17 0.21 0.20 0.15 0.09 0.06 0.06
0.00 0.00 0.00 0.01 0.02 0.05 0.10 0.14 0.17 0.20 0.31 0.37 0.41 0.45 0.59 0.89 1.08 1.18 1.21 1.21 1.25 1.24 1.00 0.95 1.02 0.88 0.72 0.83 0.93 0.86 0.61 0.41 0.32 0.27 0.25 0.27 0.25 0.16 0.12 0.11 0.11 0.12 0.09
0.00 0.00 0.00 0.00 0.00 0.01 0.04 0.07 0.07 0.06 0.07 0.10 0.17 0.32 0.30 0.37 0.45 0.63 0.71 0.71 0.71 0.73 0.69 0.83 0.79 0.73 0.66 0.64 0.59 0.52 0.45 0.43 0.45 0.40 0.39 0.30 0.18 0.12 0.11 0.12 0.25 0.15 0.06
0.00 0.00 0.00 0.00 0.00 0.00 0.01 0.02 0.04 0.03 0.02 0.03 0.04 0.05 0.06 0.11 0.16 0.16 0.24 0.28 0.31 0.38 0.38 0.37 0.35 0.38 0.42 0.47 0.45 0.40 0.45 0.53 0.53 0.51 0.53 0.54 0.47 0.41 0.33 0.34 0.28 0.06 0.02
0.00 0.00 0.00 0.00 0.00 0.00 0.00 0.01 0.00 0.00 0.00 0.01 0.01 0.01 0.01 0.02 0.03 0.04 0.05 0.05 0.05 0.09 0.14 0.13 0.08 0.09 0.15 0.17 0.17 0.19 0.23 0.30 0.29 0.28 0.24 0.26 0.31 0.32 0.20 0.14 0.22 0.05 0.02
0.01 0.00 0.00 0.00 0.00 0.00 0.00 0.01 0.00 0.00 0.00 0.00 0.00 0.01 0.01 0.01 0.04 0.06 0.02 0.01 0.02 0.04 0.12 0.11 0.08 0.09 0.09 0.08 0.07 0.07 0.09 0.14 0.19 0.22 0.23 0.23 0.20 0.17 0.15 0.11 0.11 0.16 0.05
0.00 0.00 0.00 0.00 0.00 0.00 0.00 0.01 0.01 0.00 0.00 0.00 0.00 0.01 0.05 0.02 0.05 0.09 0.04 0.02 0.05 0.10 0.12 0.15 0.14 0.11 0.09 0.08 0.14 0.14 0.14 0.20 0.29 0.33 0.26 0.21 0.17 0.15 0.16 0.11 0.08 0.09 0.06

GFSMA_prec_precacc24_273.txt.gz
Total_Precipitation_Accumulation
0.00 0.00 0.00 0.00 0.00 0.00 0.00 0.00 0.00 0.00 0.00 0.00 0.00 0.00 0.00 0.00 0.00 0.00 0.00 0.00 0.00 0.00 0.00 0.00 0.00 0.00 0.01 0.01 0.00 0.00 0.00 0.00 0.00 0.00 0.00 0.00 0.00 0.00 0.00 0.00 0.00 0.00 0.00
0.00 0.00 0.00 0.00 0.00 0.00 0.00 0.00 0.00 0.00 0.00 0.00 0.00 0.00 0.00 0.00 0.00 0.00 0.00 0.00 0.00 0.00 0.00 0.00 0.00 0.01 0.03 0.03 0.00 0.00 0.00 0.00 0.00 0.00 0.00 0.00 0.00 0.00 0.00 0.00 0.00 0.00 0.00
0.00 0.00 0.00 0.00 0.00 0.00 0.00 0.00 0.00 0.00 0.00 0.00 0.00 0.00 0.00 0.00 0.00 0.00 0.00 0.00 0.00 0.00 0.00 0.00 0.00 0.00 0.01 0.02 0.01 0.00 0.00 0.00 0.00 0.00 0.00 0.00 0.00 0.00 0.00 0.00 0.00 0.00 0.00
0.00 0.00 0.00 0.00 0.00 0.00 0.00 0.00 0.00 0.00 0.00 0.00 0.00 0.00 0.00 0.00 0.00 0.00 0.00 0.00 0.00 0.00 0.00 0.00 0.00 0.00 0.00 0.00 0.01 0.00 0.00 0.00 0.00 0.00 0.00 0.00 0.00 0.00 0.00 0.00 0.00 0.00 0.00
0.00 0.00 0.00 0.00 0.00 0.00 0.00 0.00 0.00 0.00 0.00 0.00 0.00 0.00 0.00 0.00 0.00 0.00 0.00 0.00 0.00 0.00 0.00 0.00 0.00 0.00 0.00 0.00 0.01 0.00 0.00 0.00 0.00 0.00 0.00 0.00 0.00 0.00 0.00 0.00 0.00 0.00 0.00
0.00 0.00 0.00 0.00 0.00 0.00 0.00 0.00 0.00 0.00 0.00 0.00 0.00 0.00 0.00 0.00 0.00 0.00 0.00 0.00 0.00 0.00 0.00 0.00 0.00 0.00 0.00 0.00 0.00 0.00 0.00 0.00 0.00 0.00 0.00 0.00 0.00 0.00 0.00 0.00 0.00 0.00 0.00
0.00 0.00 0.00 0.00 0.00 0.00 0.00 0.00 0.00 0.00 0.00 0.00 0.00 0.00 0.00 0.00 0.00 0.00 0.00 0.00 0.00 0.00 0.00 0.00 0.00 0.00 0.00 0.00 0.00 0.00 0.00 0.00 0.00 0.00 0.00 0.00 0.00 0.00 0.00 0.00 0.00 0.00 0.00
0.00 0.00 0.00 0.00 0.00 0.00 0.00 0.00 0.00 0.00 0.00 0.00 0.00 0.00 0.00 0.00 0.00 0.00 0.00 0.00 0.00 0.00 0.00 0.00 0.00 0.00 0.00 0.00 0.00 0.00 0.00 0.00 0.00 0.00 0.00 0.00 0.00 0.00 0.00 0.00 0.00 0.03 0.08
0.00 0.00 0.00 0.00 0.00 0.00 0.00 0.00 0.00 0.00 0.00 0.00 0.00 0.00 0.00 0.00 0.00 0.00 0.00 0.00 0.00 0.00 0.00 0.00 0.00 0.00 0.00 0.00 0.00 0.00 0.00 0.00 0.00 0.00 0.00 0.00 0.02 0.02 0.01 0.03 0.07 0.18 0.16
0.00 0.00 0.00 0.00 0.00 0.00 0.00 0.00 0.00 0.00 0.00 0.00 0.00 0.00 0.00 0.00 0.00 0.00 0.00 0.00 0.00 0.00 0.00 0.00 0.00 0.00 0.00 0.00 0.00 0.00 0.00 0.01 0.03 0.02 0.01 0.02 0.03 0.05 0.09 0.14 0.14 0.18 0.18
0.06 0.01 0.01 0.00 0.00 0.00 0.00 0.00 0.00 0.00 0.00 0.00 0.00 0.00 0.00 0.00 0.00 0.00 0.00 0.00 0.00 0.00 0.00 0.00 0.00 0.00 0.00 0.00 0.00 0.00 0.02 0.08 0.08 0.07 0.07 0.05 0.10 0.18 0.20 0.16 0.16 0.17 0.16
0.40 0.16 0.10 0.09 0.05 0.02 0.01 0.01 0.00 0.01 0.01 0.00 0.00 0.00 0.00 0.00 0.00 0.00 0.00 0.00 0.00 0.02 0.03 0.02 0.01 0.01 0.01 0.01 0.02 0.05 0.09 0.14 0.17 0.16 0.16 0.19 0.22 0.28 0.26 0.20 0.18 0.16 0.13
1.25 1.09 0.87 0.47 0.27 0.18 0.08 0.05 0.07 0.07 0.05 0.04 0.04 0.07 0.11 0.12 0.16 0.16 0.14 0.06 0.05 0.04 0.06 0.03 0.01 0.02 0.02 0.00 0.02 0.15 0.18 0.20 0.23 0.20 0.17 0.14 0.18 0.23 0.23 0.21 0.19 0.18 0.33
1.66 1.73 1.59 1.56 1.36 0.98 0.64 0.35 0.20 0.22 0.22 0.22 0.28 0.31 0.36 0.22 0.37 0.38 0.33 0.30 0.22 0.12 0.05 0.02 0.03 0.04 0.08 0.08 0.12 0.31 0.28 0.28 0.25 0.18 0.16 0.18 0.27 0.31 0.28 0.26 0.34 0.39 0.32
1.06 1.23 1.48 1.34 1.49 1.76 1.92 1.76 1.20 0.77 0.55 0.45 0.44 0.52 0.47 0.39 0.36 0.37 0.33 0.26 0.30 0.16 0.04 0.02 0.03 0.07 0.14 0.14 0.14 0.17 0.19 0.16 0.19 0.26 0.40 0.44 0.35 0.28 0.30 0.32 0.29 0.18 0.12
0.85 1.14 1.32 1.36 1.46 1.49 1.62 1.99 2.04 1.76 1.43 1.11 0.95 0.86 0.75 0.57 0.43 0.30 0.25 0.24 0.28 0.32 0.23 0.10 0.06 0.07 0.11 0.10 0.14 0.21 0.25 0.38 0.42 0.31 0.21 0.18 0.17 0.19 0.21 0.18 0.13 0.09 0.09
0.77 0.92 1.13 1.24 1.17 1.17 1.49 1.75 1.98 2.05 1.90 1.91 1.92 1.67 1.29 1.09 0.83 0.63 0.55 0.54 0.45 0.50 0.46 0.24 0.16 0.19 0.17 0.22 0.37 0.70 0.66 0.32 0.14 0.12 0.13 0.14 0.19 0.20 0.13 0.07 0.06 0.07 0.07
0.66 0.81 0.88 0.90 1.02 1.23 1.28 1.41 1.60 1.65 1.51 1.44 1.60 1.50 1.36 1.50 1.43 1.35 1.25 1.16 1.16 1.12 1.08 0.78 0.58 0.47 0.33 0.38 0.45 0.47 0.33 0.28 0.21 0.28 0.31 0.23 0.14 0.08 0.06 0.08 0.08 0.07 0.07
0.09 0.20 0.31 0.48 0.58 0.66 0.69 0.95 1.18 1.32 1.45 1.42 1.33 1.15 1.03 1.17 1.10 1.19 1.37 1.38 1.35 1.46 1.42 1.24 0.87 0.84 0.78 0.49 0.44 0.46 0.46 0.44 0.45 0.43 0.30 0.25 0.20 0.15 0.12 0.11 0.09 0.07 0.06
0.00 0.01 0.03 0.07 0.11 0.18 0.25 0.32 0.33 0.40 0.55 0.74 0.97 1.05 1.06 1.09 0.96 0.95 0.92 0.92 1.05 1.17 1.18 1.31 1.25 1.04 0.86 0.83 0.98 1.10 1.12 1.09 0.99 0.98 1.10 0.89 0.60 0.47 0.23 0.15 0.09 0.07 0.07
0.00 0.00 0.00 0.00 0.01 0.01 0.03 0.06 0.10 0.15 0.27 0.35 0.39 0.43 0.58 0.88 1.06 1.16 1.18 1.18 1.21 1.21 1.09 1.10 1.13 1.11 0.99 0.98 1.05 1.17 1.21 1.14 0.83 0.59 0.54 0.48 0.37 0.24 0.22 0.27 0.25 0.20 0.13
0.00 0.00 0.00 0.00 0.00 0.00 0.01 0.01 0.02 0.02 0.03 0.05 0.11 0.19 0.26 0.35 0.44 0.61 0.69 0.66 0.66 0.69 0.67 0.81 0.80 0.75 0.71 0.70 0.64 0.57 0.49 0.47 0.50 0.45 0.46 0.48 0.44 0.43 0.40 0.34 0.39 0.22 0.10
0.00 0.00 0.00 0.00 0.00 0.00 0.01 0.01 0.02 0.00 0.00 0.00 0.01 0.01 0.03 0.08 0.14 0.15 0.22 0.25 0.28 0.32 0.32 0.32 0.32 0.35 0.40 0.45 0.44 0.40 0.46 0.57 0.57 0.55 0.59 0.64 0.56 0.47 0.43 0.47 0.39 0.14 0.09
0.00 0.00 0.00 0.00 0.00 0.00 0.00 0.00 0.00 0.00 0.00 0.00 0.00 0.01 0.00 0.01 0.02 0.03 0.03 0.03 0.03 0.05 0.08 0.08 0.05 0.06 0.10 0.13 0.16 0.19 0.23 0.30 0.27 0.24 0.23 0.27 0.32 0.34 0.22 0.16 0.26 0.08 0.04
0.00 0.00 0.00 0.00 0.00 0.00 0.00 0.01 0.00 0.00 0.00 0.00 0.00 0.00 0.00 0.00 0.01 0.02 0.01 0.00 0.01 0.02 0.06 0.06 0.04 0.04 0.05 0.05 0.04 0.04 0.04 0.07 0.11 0.15 0.21 0.24 0.20 0.19 0.17 0.11 0.13 0.18 0.07
0.00 0.00 0.00 0.00 0.00 0.00 0.00 0.01 0.01 0.00 0.00 0.00 0.00 0.00 0.00 0.01 0.01 0.02 0.01 0.01 0.02 0.04 0.05 0.08 0.08 0.07 0.05 0.04 0.07 0.04 0.03 0.06 0.16 0.27 0.24 0.20 0.17 0.15 0.17 0.12 0.08 0.10 0.07

GFSMA_prec_precacc24_276.txt.gz
Total_Precipitation_Accumulation
0.00 0.00 0.00 0.00 0.00 0.00 0.00 0.00 0.00 0.00 0.00 0.00 0.00 0.00 0.00 0.00 0.00 0.00 0.00 0.00 0.00 0.00 0.00 0.00 0.00 0.00 0.00 0.00 0.00 0.00 0.00 0.00 0.00 0.00 0.00 0.00 0.00 0.00 0.00 0.00 0.00 0.00 0.00
0.00 0.00 0.00 0.00 0.00 0.00 0.00 0.00 0.00 0.00 0.00 0.00 0.00 0.00 0.00 0.00 0.00 0.00 0.00 0.00 0.00 0.00 0.00 0.00 0.00 0.01 0.02 0.03 0.00 0.00 0.00 0.00 0.00 0.00 0.00 0.00 0.00 0.00 0.00 0.00 0.00 0.00 0.00
0.00 0.00 0.00 0.00 0.00 0.00 0.00 0.00 0.00 0.00 0.00 0.00 0.00 0.00 0.00 0.00 0.00 0.00 0.00 0.00 0.00 0.00 0.00 0.00 0.00 0.00 0.00 0.02 0.01 0.00 0.00 0.00 0.00 0.00 0.00 0.00 0.00 0.00 0.00 0.00 0.00 0.00 0.00
0.00 0.00 0.00 0.00 0.00 0.00 0.00 0.00 0.00 0.00 0.00 0.00 0.00 0.00 0.00 0.00 0.00 0.00 0.00 0.00 0.00 0.00 0.00 0.00 0.00 0.00 0.00 0.00 0.01 0.00 0.00 0.00 0.00 0.00 0.00 0.00 0.00 0.00 0.00 0.00 0.00 0.00 0.00
0.00 0.00 0.00 0.00 0.00 0.00 0.00 0.00 0.00 0.00 0.00 0.00 0.00 0.00 0.00 0.00 0.00 0.00 0.00 0.00 0.00 0.00 0.00 0.00 0.00 0.00 0.00 0.00 0.01 0.00 0.00 0.00 0.00 0.00 0.00 0.00 0.00 0.00 0.00 0.00 0.00 0.00 0.00
0.00 0.00 0.00 0.00 0.00 0.00 0.00 0.00 0.00 0.00 0.00 0.00 0.00 0.00 0.00 0.00 0.00 0.00 0.00 0.00 0.00 0.00 0.00 0.00 0.00 0.00 0.00 0.00 0.00 0.00 0.00 0.00 0.00 0.00 0.00 0.00 0.00 0.00 0.00 0.00 0.00 0.00 0.00
0.00 0.00 0.00 0.00 0.00 0.00 0.00 0.00 0.00 0.00 0.00 0.00 0.00 0.00 0.00 0.00 0.00 0.00 0.00 0.00 0.00 0.00 0.00 0.00 0.00 0.00 0.00 0.00 0.00 0.00 0.00 0.00 0.00 0.00 0.00 0.00 0.00 0.00 0.00 0.00 0.00 0.00 0.00
0.01 0.02 0.00 0.00 0.00 0.00 0.00 0.00 0.00 0.00 0.00 0.00 0.00 0.00 0.00 0.00 0.00 0.00 0.00 0.00 0.00 0.00 0.00 0.00 0.00 0.00 0.00 0.00 0.00 0.00 0.00 0.00 0.00 0.00 0.00 0.00 0.00 0.00 0.00 0.00 0.00 0.03 0.08
0.03 0.02 0.02 0.01 0.00 0.00 0.00 0.00 0.00 0.00 0.00 0.00 0.00 0.00 0.00 0.00 0.00 0.00 0.00 0.00 0.00 0.00 0.00 0.00 0.00 0.00 0.00 0.00 0.00 0.00 0.00 0.00 0.00 0.00 0.00 0.00 0.02 0.02 0.01 0.03 0.07 0.18 0.16
0.04 0.02 0.01 0.02 0.03 0.01 0.00 0.00 0.00 0.00 0.00 0.00 0.00 0.00 0.00 0.00 0.00 0.00 0.00 0.00 0.00 0.00 0.00 0.00 0.00 0.00 0.00 0.00 0.00 0.00 0.00 0.00 0.03 0.02 0.01 0.02 0.03 0.05 0.09 0.14 0.14 0.18 0.18
0.13 0.06 0.06 0.06 0.07 0.08 0.05 0.02 0.01 0.00 0.01 0.00 0.00 0.00 0.00 0.00 0.00 0.00 0.00 0.00 0.00 0.00 0.00 0.00 0.00 0.00 0.00 0.00 0.00 0.00 0.01 0.04 0.07 0.07 0.07 0.05 0.10 0.18 0.20 0.16 0.16 0.17 0.16
0.57 0.39 0.29 0.21 0.20 0.23 0.21 0.17 0.12 0.09 0.03 0.03 0.03 0.03 0.01 0.00 0.00 0.00 0.00 0.00 0.00 0.02 0.03 0.02 0.01 0.01 0.01 0.01 0.02 0.04 0.07 0.12 0.17 0.16 0.16 0.19 0.22 0.28 0.26 0.20 0.19 0.17 0.14
1.43 1.56 1.33 0.89 0.65 0.62 0.60 0.61 0.71 0.62 0.31 0.13 0.09 0.09 0.10 0.11 0.10 0.14 0.15 0.06 0.05 0.04 0.06 0.03 0.01 0.01 0.02 0.00 0.01 0.09 0.16 0.19 0.23 0.20 0.17 0.14 0.18 0.23 0.23 0.22 0.20 0.18 0.33
1.65 1.78 1.82 1.90 1.82 1.50 1.20 0.98 0.88 0.88 0.77 0.51 0.39 0.33 0.27 0.20 0.28 0.33 0.32 0.32 0.23 0.12 0.05 0.02 0.02 0.02 0.04 0.04 0.06 0.19 0.20 0.26 0.25 0.18 0.16 0.18 0.27 0.31 0.29 0.28 0.35 0.40 0.32
1.03 1.22 1.36 1.30 1.47 1.78 2.02 1.95 1.51 1.12 0.81 0.64 0.54 0.46 0.38 0.33 0.38 0.40 0.35 0.26 0.28 0.17 0.04 0.02 0.02 0.04 0.05 0.04 0.04 0.10 0.14 0.14 0.18 0.26 0.40 0.44 0.35 0.28 0.31 0.36 0.32 0.20 0.13
0.56 0.80 1.03 1.07 1.01 1.09 1.37 1.79 1.96 1.76 1.48 1.18 1.01 0.93 0.85 0.69 0.51 0.33 0.26 0.23 0.28 0.29 0.22 0.05 0.04 0.06 0.09 0.07 0.09 0.15 0.11 0.15 0.30 0.29 0.20 0.19 0.18 0.22 0.25 0.23 0.16 0.12 0.12
0.36 0.48 0.66 0.95 1.06 0.97 1.03 1.06 1.18 1.42 1.72 1.88 1.90 1.66 1.31 1.15 0.97 0.79 0.70 0.62 0.55 0.51 0.48 0.22 0.14 0.16 0.13 0.16 0.19 0.18 0.17 0.12 0.11 0.13 0.13 0.16 0.23 0.25 0.19 0.12 0.10 0.09 0.08
0.55 0.70 0.76 0.75 0.90 1.10 1.13 1.16 1.18 1.23 1.28 1.32 1.48 1.44 1.33 1.44 1.45 1.37 1.32 1.20 1.14 1.05 1.07 0.79 0.56 0.48 0.40 0.39 0.31 0.31 0.29 0.28 0.24 0.33 0.36 0.29 0.21 0.14 0.12 0.14 0.13 0.10 0.10
0.05 0.13 0.23 0.39 0.50 0.57 0.64 0.91 1.10 1.24 1.39 1.37 1.27 1.12 1.00 1.07 1.09 1.16 1.31 1.33 1.25 1.32 1.32 1.20 0.87 0.84 0.93 0.97 0.97 0.92 0.90 0.85 0.75 0.74 0.60 0.49 0.48 0.57 0.64 0.65 0.44 0.26 0.13
0.00 0.01 0.02 0.05 0.09 0.16 0.22 0.27 0.30 0.37 0.53 0.73 0.95 1.03 1.03 1.03 0.95 0.85 0.84 0.78 0.86 1.00 1.09 1.24 1.21 1.02 0.89 0.89 1.05 1.20 1.38 1.56 1.64 1.76 1.95 1.75 1.57 1.31 1.10 0.86 0.53 0.31 0.21
0.00 0.00 0.00 0.00 0.01 0.01 0.03 0.05 0.08 0.14 0.26 0.34 0.38 0.43 0.56 0.85 1.03 1.05 1.09 1.09 1.14 1.18 1.08 1.08 1.10 1.08 0.97 0.98 1.05 1.16 1.21 1.16 0.87 0.63 0.57 0.58 0.50 0.33 0.30 0.33 0.43 0.50 0.47
0.00 0.00 0.00 0.00 0.00 0.00 0.01 0.01 0.01 0.01 0.02 0.05 0.11 0.17 0.22 0.31 0.40 0.55 0.62 0.61 0.61 0.66 0.66 0.81 0.79 0.73 0.68 0.67 0.61 0.53 0.45 0.39 0.40 0.38 0.42 0.47 0.47 0.48 0.47 0.41 0.47 0.34 0.25
0.00 0.00 0.00 0.00 0.00 0.00 0.01 0.01 0.01 0.00 0.00 0.00 0.00 0.01 0.02 0.04 0.06 0.08 0.16 0.20 0.23 0.27 0.30 0.32 0.31 0.34 0.36 0.39 0.33 0.26 0.31 0.41 0.48 0.53 0.59 0.62 0.58 0.48 0.43 0.51 0.48 0.22 0.17
0.00 0.00 0.00 0.00 0.00 0.00 0.00 0.00 0.00 0.00 0.00 0.00 0.00 0.01 0.00 0.01 0.01 0.01 0.01 0.01 0.01 0.02 0.05 0.06 0.05 0.05 0.08 0.10 0.11 0.13 0.17 0.24 0.23 0.22 0.20 0.19 0.20 0.24 0.28 0.24 0.39 0.17 0.11
0.00 0.00 0.00 0.00 0.00 0.00 0.00 0.00 0.00 0.00 0.00 0.00 0.00 0.00 0.00 0.00 0.00 0.01 0.00 0.00 0.00 0.01 0.02 0.03 0.02 0.02 0.03 0.04 0.04 0.03 0.03 0.05 0.06 0.05 0.05 0.10 0.14 0.21 0.25 0.21 0.21 0.30 0.18
0.00 0.00 0.00 0.00 0.00 0.00 0.00 0.01 0.00 0.00 0.00 0.00 0.00 0.00 0.00 0.01 0.00 0.01 0.00 0.00 0.00 0.02 0.01 0.01 0.01 0.02 0.02 0.02 0.04 0.03 0.01 0.03 0.06 0.07 0.06 0.11 0.13 0.14 0.17 0.13 0.10 0.13 0.12

GFSMA_prec_precacc24_279.txt.gz
Total_Precipitation_Accumulation
0.00 0.00 0.00 0.00 0.00 0.00 0.00 0.00 0.00 0.00 0.00 0.00 0.00 0.00 0.00 0.00 0.00 0.00 0.00 0.00 0.00 0.00 0.00 0.00 0.00 0.00 0.00 0.00 0.00 0.00 0.00 0.00 0.00 0.00 0.00 0.00 0.00 0.00 0.00 0.00 0.00 0.00 0.00
0.00 0.00 0.00 0.00 0.00 0.00 0.00 0.00 0.00 0.00 0.00 0.00 0.00 0.00 0.00 0.00 0.00 0.00 0.00 0.00 0.00 0.00 0.00 0.00 0.00 0.01 0.02 0.02 0.00 0.00 0.00 0.00 0.00 0.00 0.00 0.00 0.00 0.00 0.00 0.00 0.00 0.00 0.00
0.00 0.00 0.00 0.00 0.00 0.00 0.00 0.00 0.00 0.00 0.00 0.00 0.00 0.00 0.00 0.00 0.00 0.00 0.00 0.00 0.00 0.00 0.00 0.00 0.00 0.00 0.00 0.01 0.01 0.00 0.00 0.00 0.00 0.00 0.00 0.00 0.00 0.00 0.00 0.00 0.00 0.00 0.00
0.00 0.00 0.00 0.00 0.00 0.00 0.00 0.00 0.00 0.00 0.00 0.00 0.00 0.00 0.00 0.00 0.00 0.00 0.00 0.00 0.00 0.00 0.00 0.00 0.00 0.00 0.00 0.00 0.00 0.00 0.00 0.00 0.00 0.00 0.00 0.00 0.00 0.00 0.00 0.00 0.00 0.00 0.00
0.00 0.00 0.00 0.00 0.00 0.00 0.00 0.00 0.00 0.00 0.00 0.00 0.00 0.00 0.00 0.00 0.00 0.00 0.00 0.00 0.00 0.00 0.00 0.00 0.00 0.00 0.00 0.00 0.01 0.00 0.00 0.00 0.00 0.00 0.00 0.00 0.00 0.00 0.00 0.00 0.00 0.00 0.00
0.01 0.01 0.00 0.00 0.00 0.00 0.00 0.00 0.00 0.00 0.00 0.00 0.00 0.00 0.00 0.00 0.00 0.00 0.00 0.00 0.00 0.00 0.00 0.00 0.00 0.00 0.00 0.00 0.00 0.00 0.00 0.00 0.00 0.00 0.00 0.00 0.00 0.00 0.00 0.00 0.00 0.00 0.00
0.02 0.02 0.01 0.00 0.00 0.00 0.00 0.00 0.00 0.00 0.00 0.00 0.00 0.00 0.00 0.00 0.00 0.00 0.00 0.00 0.00 0.00 0.00 0.00 0.00 0.00 0.00 0.00 0.00 0.00 0.00 0.00 0.00 0.00 0.00 0.00 0.00 0.00 0.00 0.00 0.00 0.00 0.00
0.04 0.05 0.02 0.01 0.00 0.00 0.00 0.00 0.00 0.00 0.00 0.00 0.00 0.00 0.00 0.00 0.00 0.00 0.00 0.00 0.00 0.00 0.00 0.00 0.00 0.00 0.00 0.00 0.00 0.00 0.00 0.00 0.00 0.00 0.00 0.00 0.00 0.00 0.00 0.00 0.00 0.03 0.08
0.05 0.05 0.03 0.02 0.01 0.01 0.00 0.00 0.00 0.00 0.00 0.00 0.00 0.00 0.00 0.00 0.00 0.00 0.00 0.00 0.00 0.00 0.00 0.00 0.00 0.00 0.00 0.00 0.00 0.00 0.00 0.00 0.00 0.00 0.00 0.00 0.02 0.02 0.01 0.03 0.07 0.18 0.16
0.04 0.03 0.03 0.04 0.06 0.06 0.06 0.05 0.04 0.02 0.02 0.00 0.00 0.00 0.00 0.01 0.00 0.00 0.00 0.00 0.00 0.00 0.00 0.00 0.00 0.00 0.00 0.00 0.00 0.00 0.00 0.00 0.03 0.02 0.01 0.02 0.03 0.05 0.09 0.14 0.14 0.18 0.18
0.13 0.06 0.06 0.07 0.08 0.10 0.10 0.11 0.15 0.19 0.20 0.08 0.05 0.02 0.00 0.00 0.01 0.01 0.00 0.00 0.00 0.00 0.00 0.00 0.00 0.00 0.00 0.00 0.00 0.00 0.01 0.03 0.05 0.06 0.06 0.05 0.10 0.18 0.20 0.16 0.16 0.17 0.16
0.55 0.38 0.30 0.23 0.22 0.25 0.22 0.20 0.24 0.34 0.34 0.32 0.31 0.24 0.15 0.06 0.03 0.02 0.01 0.00 0.00 0.00 0.01 0.01 0.00 0.00 0.00 0.01 0.01 0.04 0.06 0.10 0.11 0.11 0.13 0.18 0.21 0.28 0.26 0.20 0.19 0.17 0.14
1.42 1.50 1.26 0.87 0.67 0.65 0.63 0.67 0.78 0.85 0.82 0.72 0.65 0.63 0.59 0.49 0.34 0.17 0.08 0.03 0.02 0.02 0.05 0.03 0.01 0.01 0.02 0.00 0.01 0.05 0.08 0.12 0.16 0.14 0.14 0.13 0.18 0.23 0.23 0.22 0.20 0.18 0.33
1.64 1.74 1.73 1.81 1.80 1.50 1.22 1.02 0.98 1.02 0.97 0.83 0.76 0.68 0.63 0.62 0.55 0.38 0.28 0.28 0.22 0.10 0.05 0.01 0.02 0.02 0.04 0.04 0.04 0.13 0.13 0.19 0.21 0.15 0.13 0.15 0.20 0.25 0.30 0.29 0.36 0.42 0.33
1.02 1.19 1.33 1.28 1.46 1.77 2.01 1.96 1.56 1.22 0.97 0.82 0.73 0.60 0.56 0.52 0.51 0.47 0.44 0.39 0.38 0.24 0.05 0.01 0.02 0.03 0.05 0.04 0.04 0.10 0.13 0.11 0.12 0.13 0.20 0.23 0.22 0.25 0.31 0.37 0.35 0.25 0.17
0.56 0.78 0.94 0.96 0.95 1.01 1.26 1.68 1.87 1.71 1.41 1.11 0.95 0.85 0.76 0.66 0.52 0.36 0.31 0.28 0.31 0.33 0.27 0.04 0.03 0.06 0.08 0.07 0.07 0.13 0.09 0.07 0.09 0.14 0.17 0.18 0.18 0.22 0.26 0.25 0.21 0.18 0.17
0.32 0.41 0.57 0.69 0.77 0.85 0.98 1.00 1.08 1.17 1.21 1.40 1.52 1.44 1.22 1.06 0.88 0.73 0.68 0.63 0.57 0.56 0.58 0.23 0.11 0.14 0.12 0.15 0.16 0.15 0.13 0.07 0.05 0.09 0.12 0.15 0.22 0.26 0.21 0.16 0.15 0.15 0.14
0.44 0.58 0.65 0.66 0.80 1.03 1.07 1.09 1.08 1.05 1.03 1.01 1.09 1.18 1.22 1.34 1.36 1.29 1.25 1.15 1.10 1.01 1.07 0.77 0.54 0.47 0.40 0.37 0.27 0.27 0.24 0.22 0.17 0.19 0.21 0.27 0.22 0.16 0.15 0.19 0.19 0.17 0.18
0.04 0.11 0.21 0.36 0.45 0.50 0.59 0.87 1.05 1.15 1.27 1.22 1.13 1.02 0.93 0.97 1.00 1.06 1.21 1.28 1.23 1.31 1.30 1.19 0.86 0.84 0.93 0.95 0.93 0.87 0.84 0.77 0.65 0.64 0.58 0.59 0.64 0.73 0.88 1.04 1.14 1.18 1.12
0.00 0.01 0.02 0.04 0.07 0.13 0.17 0.22 0.25 0.31 0.43 0.66 0.90 0.99 0.99 1.00 0.93 0.82 0.81 0.76 0.83 0.95 1.04 1.19 1.18 1.01 0.87 0.88 1.02 1.17 1.34 1.51 1.59 1.73 1.95 1.84 1.71 1.67 1.54 1.38 1.11 0.88 0.76
0.00 0.00 0.00 0.00 0.01 0.01 0.03 0.05 0.07 0.11 0.18 0.22 0.29 0.36 0.52 0.82 1.00 1.03 1.07 1.07 1.10 1.12 1.01 1.02 1.06 1.05 0.94 0.96 1.04 1.15 1.18 1.10 0.82 0.59 0.49 0.42 0.36 0.33 0.38 0.46 0.53 0.59 0.56
0.00 0.00 0.00 0.00 0.00 0.00 0.01 0.01 0.01 0.01 0.02 0.04 0.09 0.14 0.18 0.27 0.38 0.53 0.58 0.54 0.54 0.60 0.62 0.75 0.76 0.71 0.67 0.66 0.59 0.50 0.41 0.35 0.32 0.27 0.29 0.40 0.46 0.50 0.49 0.45 0.56 0.44 0.39
0.00 0.00 0.00 0.00 0.00 0.00 0.01 0.01 0.01 0.00 0.00 0.00 0.00 0.01 0.02 0.03 0.05 0.08 0.14 0.18 0.21 0.25 0.26 0.29 0.29 0.32 0.35 0.38 0.33 0.25 0.30 0.40 0.47 0.53 0.59 0.62 0.61 0.54 0.47 0.50 0.61 0.40 0.34
0.00 0.00 0.00 0.00 0.00 0.00 0.00 0.00 0.00 0.00 0.00 0.00 0.00 0.01 0.00 0.01 0.01 0.01 0.01 0.01 0.01 0.01 0.03 0.05 0.04 0.05 0.08 0.09 0.11 0.13 0.17 0.22 0.21 0.21 0.22 0.24 0.29 0.32 0.35 0.37 0.60 0.35 0.29
0.00 0.00 0.00 0.00 0.00 0.00 0.00 0.00 0.00 0.00 0.00 0.00 0.00 0.00 0.00 0.00 0.00 0.01 0.00 0.00 0.00 0.00 0.01 0.02 0.01 0.01 0.02 0.04 0.04 0.03 0.03 0.05 0.06 0.05 0.06 0.10 0.13 0.25 0.39 0.40 0.44 0.52 0.39
0.00 0.00 0.00 0.00 0.00 0.00 0.00 0.01 0.00 0.00 0.00 0.00 0.00 0.00 0.00 0.01 0.00 0.01 0.01 0.00 0.01 0.02 0.01 0.01 0.01 0.01 0.01 0.02 0.04 0.03 0.01 0.03 0.06 0.06 0.05 0.10 0.12 0.17 0.25 0.23 0.23 0.30 0.34

GFSMA_prec_precacc24_282.txt.gz
Total_Precipitation_Accumulation
0.00 0.00 0.00 0.00 0.00 0.00 0.00 0.00 0.00 0.00 0.00 0.00 0.00 0.00 0.00 0.00 0.00 0.00 0.00 0.00 0.00 0.00 0.00 0.00 0.00 0.00 0.00 0.00 0.00 0.00 0.00 0.00 0.00 0.00 0.00 0.00 0.00 0.00 0.00 0.00 0.00 0.00 0.00
0.00 0.00 0.00 0.00 0.00 0.00 0.00 0.00 0.00 0.00 0.00 0.00 0.00 0.00 0.00 0.00 0.00 0.00 0.00 0.00 0.00 0.00 0.00 0.00 0.00 0.00 0.00 0.01 0.00 0.00 0.00 0.00 0.00 0.00 0.00 0.00 0.00 0.00 0.00 0.00 0.00 0.00 0.00
0.00 0.00 0.00 0.00 0.00 0.00 0.00 0.00 0.00 0.00 0.00 0.00 0.00 0.00 0.00 0.00 0.00 0.00 0.00 0.00 0.00 0.00 0.00 0.00 0.00 0.00 0.00 0.01 0.00 0.00 0.00 0.00 0.00 0.00 0.00 0.00 0.00 0.00 0.00 0.00 0.00 0.00 0.00
0.01 0.00 0.00 0.00 0.00 0.00 0.00 0.00 0.00 0.00 0.00 0.00 0.00 0.00 0.00 0.00 0.00 0.00 0.00 0.00 0.00 0.00 0.00 0.00 0.00 0.00 0.00 0.00 0.00 0.00 0.00 0.00 0.00 0.00 0.00 0.00 0.00 0.00 0.00 0.00 0.00 0.00 0.00
0.07 0.05 0.02 0.01 0.01 0.01 0.01 0.00 0.00 0.00 0.00 0.00 0.00 0.00 0.00 0.00 0.00 0.00 0.00 0.00 0.00 0.00 0.00 0.00 0.00 0.00 0.00 0.00 0.00 0.00 0.00 0.00 0.00 0.00 0.00 0.00 0.00 0.00 0.00 0.00 0.00 0.00 0.00
0.08 0.10 0.08 0.05 0.04 0.03 0.01 0.01 0.00 0.00 0.00 0.00 0.00 0.00 0.00 0.00 0.00 0.00 0.00 0.00 0.00 0.00 0.00 0.00 0.00 0.00 0.00 0.00 0.00 0.00 0.00 0.00 0.00 0.00 0.00 0.00 0.00 0.00 0.00 0.00 0.00 0.00 0.00
0.02 0.05 0.06 0.05 0.05 0.04 0.02 0.02 0.01 0.01 0.00 0.00 0.01 0.00 0.00 0.00 0.00 0.00 0.00 0.00 0.00 0.00 0.00 0.00 0.00 0.00 0.00 0.00 0.00 0.00 0.00 0.00 0.00 0.00 0.00 0.00 0.00 0.00 0.00 0.00 0.00 0.00 0.00
0.04 0.07 0.06 0.04 0.03 0.03 0.03 0.02 0.02 0.02 0.01 0.00 0.01 0.00 0.00 0.00 0.00 0.00 0.00 0.00 0.00 0.00 0.00 0.00 0.00 0.00 0.00 0.00 0.00 0.00 0.00 0.00 0.00 0.00 0.00 0.00 0.00 0.00 0.00 0.00 0.00 0.03 0.08
0.05 0.06 0.06 0.05 0.04 0.05 0.06 0.06 0.06 0.05 0.03 0.03 0.03 0.03 0.02 0.00 0.00 0.00 0.00 0.00 0.00 0.00 0.00 0.00 0.00 0.00 0.00 0.00 0.00 0.00 0.00 0.00 0.00 0.00 0.00 0.00 0.02 0.02 0.01 0.03 0.07 0.18 0.16
0.04 0.03 0.03 0.05 0.07 0.08 0.09 0.09 0.10 0.09 0.10 0.08 0.08 0.06 0.06 0.04 0.03 0.01 0.00 0.00 0.00 0.00 0.00 0.00 0.00 0.00 0.00 0.00 0.00 0.00 0.00 0.00 0.03 0.02 0.01 0.02 0.03 0.05 0.09 0.14 0.14 0.18 0.18
0.13 0.06 0.06 0.07 0.08 0.11 0.11 0.12 0.18 0.25 0.35 0.42 0.44 0.37 0.33 0.24 0.17 0.16 0.07 0.01 0.00 0.00 0.00 0.00 0.00 0.00 0.00 0.00 0.00 0.00 0.00 0.03 0.05 0.04 0.03 0.03 0.10 0.18 0.20 0.16 0.16 0.17 0.16
0.52 0.37 0.30 0.23 0.23 0.25 0.23 0.21 0.25 0.35 0.37 0.36 0.43 0.46 0.49 0.46 0.37 0.29 0.22 0.12 0.05 0.03 0.02 0.01 0.01 0.00 0.00 0.00 0.00 0.02 0.04 0.05 0.05 0.07 0.07 0.15 0.20 0.27 0.26 0.19 0.19 0.17 0.14
1.39 1.44 1.17 0.81 0.65 0.65 0.63 0.67 0.78 0.85 0.82 0.72 0.66 0.64 0.62 0.57 0.50 0.45 0.37 0.25 0.16 0.08 0.04 0.02 0.02 0.01 0.01 0.00 0.00 0.00 0.02 0.06 0.09 0.11 0.12 0.12 0.14 0.18 0.19 0.20 0.19 0.18 0.33
1.64 1.74 1.72 1.79 1.77 1.48 1.20 1.02 0.98 1.02 0.97 0.84 0.76 0.68 0.63 0.63 0.56 0.47 0.43 0.38 0.26 0.11 0.05 0.01 0.00 0.00 0.00 0.00 0.01 0.06 0.07 0.13 0.14 0.12 0.10 0.11 0.12 0.14 0.20 0.24 0.35 0.42 0.33
1.02 1.19 1.32 1.28 1.46 1.76 2.01 1.96 1.56 1.22 0.97 0.82 0.73 0.60 0.55 0.52 0.51 0.49 0.46 0.45 0.42 0.26 0.06 0.00 0.00 0.01 0.04 0.04 0.05 0.08 0.10 0.08 0.05 0.07 0.11 0.14 0.14 0.15 0.28 0.36 0.35 0.25 0.17
0.55 0.77 0.93 0.96 0.94 1.01 1.25 1.66 1.86 1.70 1.41 1.10 0.93 0.84 0.74 0.63 0.50 0.36 0.31 0.29 0.31 0.34 0.22 0.02 0.01 0.01 0.01 0.01 0.02 0.08 0.06 0.02 0.03 0.07 0.08 0.09 0.08 0.09 0.17 0.21 0.20 0.18 0.17
0.31 0.40 0.56 0.67 0.75 0.84 0.94 0.95 1.05 1.13 1.20 1.40 1.51 1.43 1.21 1.05 0.88 0.73 0.67 0.62 0.55 0.51 0.47 0.21 0.10 0.08 0.02 0.03 0.05 0.07 0.08 0.04 0.04 0.07 0.07 0.07 0.08 0.11 0.12 0.14 0.15 0.15 0.14
0.36 0.51 0.59 0.59 0.74 0.95 1.02 1.04 1.02 1.02 1.02 1.01 1.08 1.17 1.22 1.34 1.35 1.29 1.24 1.13 1.08 0.98 1.05 0.76 0.52 0.43 0.32 0.28 0.21 0.22 0.22 0.19 0.15 0.16 0.16 0.14 0.15 0.13 0.15 0.17 0.16 0.16 0.18
0.03 0.08 0.16 0.29 0.37 0.41 0.52 0.83 1.02 1.14 1.26 1.21 1.10 1.00 0.92 0.96 1.00 1.05 1.20 1.26 1.20 1.27 1.26 1.13 0.82 0.79 0.87 0.90 0.87 0.83 0.80 0.73 0.62 0.61 0.56 0.57 0.63 0.72 0.85 1.00 1.12 1.18 1.13
0.00 0.00 0.01 0.03 0.06 0.11 0.15 0.20 0.24 0.30 0.41 0.64 0.88 0.95 0.95 0.98 0.93 0.81 0.79 0.73 0.79 0.91 1.00 1.14 1.12 0.95 0.84 0.85 1.00 1.15 1.33 1.50 1.59 1.73 1.94 1.83 1.68 1.60 1.47 1.33 1.10 0.88 0.77
0.00 0.00 0.00 0.00 0.01 0.01 0.02 0.03 0.05 0.08 0.15 0.18 0.22 0.30 0.45 0.73 0.92 0.97 1.04 1.04 1.06 1.09 0.98 0.99 1.03 1.02 0.91 0.91 1.02 1.13 1.16 1.09 0.81 0.58 0.48 0.39 0.33 0.30 0.37 0.45 0.54 0.62 0.61
0.00 0.00 0.00 0.00 0.00 0.00 0.01 0.01 0.01 0.01 0.02 0.04 0.07 0.11 0.14 0.21 0.29 0.42 0.51 0.50 0.49 0.57 0.61 0.73 0.73 0.69 0.66 0.64 0.58 0.48 0.39 0.33 0.31 0.27 0.29 0.39 0.46 0.50 0.49 0.45 0.58 0.49 0.50
0.00 0.00 0.00 0.00 0.00 0.00 0.01 0.01 0.01 0.00 0.00 0.00 0.00 0.01 0.02 0.02 0.04 0.06 0.12 0.16 0.19 0.23 0.25 0.28 0.29 0.32 0.33 0.33 0.28 0.22 0.28 0.39 0.47 0.52 0.59 0.62 0.60 0.53 0.47 0.52 0.64 0.45 0.42
0.00 0.00 0.00 0.00 0.00 0.00 0.00 0.00 0.00 0.00 0.00 0.00 0.00 0.01 0.00 0.01 0.00 0.01 0.01 0.01 0.01 0.01 0.03 0.05 0.04 0.05 0.07 0.09 0.11 0.12 0.16 0.22 0.21 0.21 0.21 0.24 0.28 0.32 0.36 0.39 0.66 0.44 0.40
0.00 0.00 0.00 0.00 0.00 0.00 0.00 0.00 0.00 0.00 0.00 0.00 0.00 0.00 0.00 0.00 0.00 0.01 0.00 0.00 0.00 0.01 0.00 0.01 0.01 0.01 0.02 0.03 0.03 0.02 0.02 0.05 0.06 0.05 0.06 0.11 0.13 0.26 0.41 0.49 0.58 0.66 0.51
0.00 0.00 0.00 0.00 0.00 0.00 0.00 0.01 0.00 0.00 0.00 0.00 0.00 0.00 0.01 0.01 0.00 0.01 0.01 0.01 0.01 0.01 0.02 0.01 0.01 0.01 0.01 0.02 0.04 0.03 0.02 0.04 0.07 0.06 0.06 0.12 0.13 0.17 0.26 0.31 0.39 0.53 0.59

GFSMA_prec_precacc24_288.txt.gz
Total_Precipitation_Accumulation
0.02 0.00 0.00 0.00 0.00 0.00 0.00 0.00 0.00 0.00 0.00 0.00 0.00 0.00 0.00 0.00 0.00 0.00 0.00 0.00 0.00 0.00 0.00 0.00 0.00 0.00 0.00 0.00 0.00 0.00 0.00 0.00 0.00 0.00 0.00 0.00 0.00 0.00 0.00 0.00 0.00 0.00 0.00
0.09 0.04 0.03 0.02 0.01 0.01 0.00 0.00 0.00 0.00 0.00 0.00 0.00 0.00 0.00 0.00 0.00 0.00 0.00 0.00 0.00 0.00 0.00 0.00 0.00 0.00 0.00 0.00 0.00 0.00 0.00 0.00 0.00 0.00 0.00 0.00 0.00 0.00 0.00 0.00 0.00 0.00 0.00
0.11 0.08 0.06 0.07 0.07 0.04 0.01 0.00 0.00 0.00 0.00 0.00 0.00 0.00 0.00 0.00 0.00 0.00 0.00 0.00 0.00 0.00 0.00 0.00 0.00 0.00 0.00 0.00 0.00 0.00 0.00 0.00 0.00 0.00 0.00 0.00 0.00 0.00 0.00 0.00 0.00 0.00 0.00
0.10 0.07 0.07 0.07 0.08 0.06 0.04 0.02 0.02 0.01 0.01 0.01 0.00 0.00 0.00 0.00 0.00 0.00 0.00 0.00 0.00 0.00 0.00 0.00 0.00 0.00 0.00 0.00 0.00 0.00 0.00 0.00 0.00 0.00 0.00 0.00 0.00 0.00 0.00 0.00 0.00 0.00 0.00
0.10 0.11 0.12 0.10 0.10 0.09 0.07 0.07 0.07 0.09 0.05 0.03 0.01 0.00 0.00 0.00 0.00 0.00 0.00 0.00 0.00 0.00 0.00 0.00 0.00 0.00 0.00 0.00 0.00 0.00 0.00 0.00 0.00 0.00 0.00 0.00 0.00 0.00 0.00 0.00 0.00 0.00 0.00
0.08 0.12 0.13 0.13 0.13 0.13 0.11 0.09 0.08 0.08 0.08 0.09 0.06 0.02 0.01 0.00 0.00 0.00 0.00 0.00 0.00 0.00 0.00 0.00 0.00 0.00 0.00 0.00 0.00 0.00 0.00 0.00 0.00 0.00 0.00 0.00 0.00 0.00 0.00 0.00 0.00 0.00 0.00
0.02 0.06 0.07 0.09 0.11 0.12 0.12 0.12 0.11 0.10 0.09 0.11 0.10 0.04 0.01 0.00 0.00 0.01 0.00 0.00 0.00 0.00 0.00 0.00 0.00 0.00 0.00 0.00 0.00 0.00 0.00 0.00 0.00 0.00 0.00 0.00 0.00 0.00 0.00 0.00 0.00 0.00 0.00
0.04 0.07 0.06 0.05 0.07 0.09 0.13 0.17 0.20 0.17 0.12 0.16 0.20 0.14 0.09 0.05 0.03 0.03 0.03 0.02 0.02 0.01 0.01 0.01 0.01 0.00 0.01 0.00 0.00 0.00 0.00 0.00 0.00 0.00 0.00 0.00 0.00 0.00 0.00 0.00 0.00 0.03 0.09
0.05 0.06 0.06 0.05 0.05 0.07 0.10 0.16 0.19 0.23 0.19 0.15 0.21 0.43 0.40 0.21 0.14 0.05 0.08 0.13 0.15 0.11 0.08 0.05 0.02 0.01 0.02 0.03 0.03 0.03 0.01 0.00 0.00 0.00 0.00 0.00 0.00 0.00 0.00 0.02 0.07 0.17 0.16
0.04 0.03 0.03 0.05 0.07 0.09 0.11 0.13 0.16 0.17 0.23 0.22 0.21 0.29 0.47 0.56 0.53 0.36 0.15 0.14 0.20 0.28 0.43 0.40 0.27 0.28 0.30 0.32 0.28 0.15 0.07 0.04 0.03 0.01 0.00 0.00 0.01 0.01 0.03 0.09 0.11 0.16 0.15
0.13 0.06 0.06 0.07 0.08 0.11 0.11 0.13 0.19 0.26 0.38 0.47 0.52 0.45 0.41 0.40 0.50 0.65 0.48 0.28 0.30 0.35 0.36 0.37 0.45 0.48 0.39 0.37 0.32 0.18 0.22 0.31 0.31 0.11 0.02 0.04 0.09 0.11 0.11 0.09 0.10 0.10 0.08
0.52 0.37 0.30 0.23 0.23 0.25 0.23 0.21 0.25 0.36 0.37 0.37 0.44 0.50 0.55 0.55 0.48 0.42 0.35 0.18 0.09 0.05 0.04 0.03 0.03 0.05 0.07 0.11 0.15 0.18 0.17 0.17 0.21 0.19 0.18 0.21 0.16 0.14 0.14 0.08 0.08 0.06 0.05
1.37 1.43 1.16 0.81 0.65 0.65 0.63 0.67 0.78 0.85 0.82 0.72 0.66 0.65 0.62 0.58 0.54 0.49 0.44 0.31 0.20 0.09 0.04 0.02 0.02 0.02 0.03 0.03 0.04 0.10 0.11 0.14 0.20 0.21 0.26 0.23 0.15 0.11 0.09 0.06 0.04 0.03 0.03
1.61 1.74 1.72 1.77 1.76 1.47 1.19 1.02 0.98 1.02 0.97 0.84 0.76 0.68 0.63 0.63 0.56 0.48 0.45 0.40 0.27 0.11 0.05 0.01 0.00 0.01 0.02 0.03 0.03 0.08 0.08 0.13 0.11 0.07 0.08 0.07 0.06 0.05 0.04 0.03 0.04 0.06 0.05
0.95 1.16 1.31 1.27 1.46 1.76 2.01 1.95 1.56 1.22 0.97 0.81 0.71 0.60 0.55 0.51 0.51 0.49 0.47 0.46 0.44 0.27 0.06 0.01 0.00 0.02 0.06 0.06 0.06 0.10 0.10 0.08 0.04 0.04 0.07 0.06 0.06 0.05 0.05 0.07 0.09 0.11 0.10
0.51 0.71 0.85 0.91 0.93 1.01 1.25 1.66 1.85 1.70 1.40 1.10 0.92 0.83 0.73 0.63 0.50 0.36 0.31 0.29 0.31 0.35 0.23 0.03 0.01 0.01 0.01 0.01 0.02 0.04 0.03 0.01 0.02 0.06 0.04 0.04 0.04 0.04 0.06 0.09 0.11 0.13 0.14
0.30 0.39 0.54 0.60 0.67 0.78 0.87 0.90 1.02 1.11 1.17 1.36 1.48 1.41 1.19 1.02 0.83 0.68 0.62 0.59 0.53 0.50 0.45 0.19 0.07 0.07 0.02 0.02 0.02 0.03 0.04 0.03 0.02 0.02 0.03 0.03 0.05 0.07 0.08 0.10 0.11 0.11 0.11
0.35 0.50 0.57 0.57 0.69 0.88 0.92 0.94 0.89 0.89 0.92 0.93 1.01 1.09 1.17 1.23 1.22 1.17 1.13 1.05 1.01 0.95 1.01 0.75 0.52 0.43 0.31 0.22 0.16 0.18 0.17 0.14 0.11 0.10 0.10 0.10 0.11 0.09 0.10 0.13 0.14 0.13 0.14
0.02 0.07 0.15 0.25 0.32 0.37 0.44 0.71 0.89 0.95 1.08 1.08 1.00 0.91 0.83 0.82 0.88 0.93 1.07 1.13 1.09 1.15 1.18 1.10 0.81 0.79 0.85 0.84 0.81 0.76 0.73 0.66 0.57 0.55 0.52 0.52 0.60 0.68 0.81 0.97 1.09 1.15 1.11
0.00 0.00 0.01 0.03 0.04 0.08 0.12 0.15 0.17 0.22 0.32 0.51 0.75 0.84 0.85 0.87 0.81 0.70 0.69 0.67 0.71 0.82 0.93 1.11 1.11 0.95 0.83 0.83 0.97 1.11 1.27 1.45 1.56 1.71 1.89 1.78 1.66 1.58 1.44 1.30 1.08 0.87 0.75
0.00 0.00 0.00 0.00 0.00 0.00 0.01 0.02 0.03 0.05 0.10 0.11 0.14 0.20 0.32 0.53 0.73 0.81 0.93 0.98 1.00 1.01 0.88 0.89 0.95 0.99 0.89 0.86 0.89 0.99 1.06 1.02 0.77 0.55 0.46 0.38 0.32 0.28 0.34 0.42 0.52 0.59 0.59
0.00 0.00 0.00 0.00 0.00 0.00 0.00 0.00 0.00 0.00 0.00 0.01 0.02 0.03 0.05 0.06 0.10 0.19 0.27 0.31 0.30 0.34 0.39 0.46 0.57 0.61 0.61 0.57 0.49 0.40 0.32 0.28 0.27 0.24 0.29 0.38 0.45 0.48 0.47 0.43 0.51 0.46 0.49
0.00 0.00 0.00 0.00 0.00 0.00 0.00 0.00 0.00 0.00 0.00 0.00 0.00 0.00 0.00 0.00 0.00 0.01 0.03 0.07 0.09 0.10 0.12 0.15 0.20 0.25 0.26 0.26 0.23 0.19 0.23 0.35 0.45 0.51 0.57 0.59 0.58 0.50 0.45 0.48 0.57 0.43 0.42
0.00 0.00 0.00 0.00 0.00 0.00 0.00 0.00 0.00 0.00 0.00 0.00 0.00 0.00 0.00 0.00 0.00 0.01 0.01 0.01 0.00 0.00 0.01 0.02 0.03 0.04 0.06 0.06 0.08 0.10 0.13 0.16 0.16 0.15 0.18 0.19 0.24 0.29 0.33 0.35 0.58 0.44 0.42
0.00 0.00 0.00 0.00 0.00 0.00 0.00 0.00 0.00 0.00 0.00 0.00 0.00 0.00 0.00 0.00 0.00 0.01 0.01 0.01 0.01 0.01 0.01 0.01 0.01 0.01 0.01 0.01 0.02 0.03 0.03 0.06 0.05 0.03 0.04 0.10 0.10 0.22 0.36 0.47 0.57 0.64 0.59
0.00 0.00 0.00 0.00 0.00 0.00 0.00 0.00 0.00 0.00 0.00 0.00 0.00 0.00 0.01 0.01 0.00 0.01 0.01 0.02 0.02 0.01 0.02 0.01 0.01 0.00 0.00 0.01 0.02 0.03 0.05 0.10 0.07 0.06 0.05 0.10 0.09 0.15 0.24 0.27 0.37 0.54 0.72